Time,TemperatureF,DewpointF,PressureIn,WindDirection,WindDirectionDegrees,WindSpeedMPH,WindSpeedGustMPH,Humidity,HourlyPrecipIn,Conditions,Clouds,dailyrainin,SoftwareType,DateUTC
2013-12-02 00:00:00,38.5,31.3,29.85,NNE,30,0.0,1.0,75,0.00,,CLR,0.00,VWS V14.01,2013-12-02 06:00:00,
2013-12-02 00:01:00,38.7,31.5,29.85,NNE,30,0.0,0.0,75,0.00,,CLR,0.00,VWS V14.01,2013-12-02 06:01:00,
2013-12-02 00:02:00,38.7,31.5,29.85,NNE,30,0.0,0.0,75,0.00,,CLR,0.00,VWS V14.01,2013-12-02 06:02:00,
2013-12-02 00:03:00,38.7,31.5,29.85,NNE,30,0.0,0.0,75,0.00,,CLR,0.00,VWS V14.01,2013-12-02 06:03:00,
2013-12-02 00:04:00,38.7,31.5,29.85,NNE,30,0.0,0.0,75,0.00,,CLR,0.00,VWS V14.01,2013-12-02 06:04:00,
2013-12-02 00:06:00,38.7,31.1,29.85,NNE,30,0.0,0.0,74,0.00,,CLR,0.00,VWS V14.01,2013-12-02 06:06:00,
2013-12-02 00:07:00,38.7,31.1,29.85,NNE,30,0.0,0.0,74,0.00,,CLR,0.00,VWS V14.01,2013-12-02 06:07:00,
2013-12-02 00:08:00,38.7,31.1,29.85,NNE,30,0.0,0.0,74,0.00,,CLR,0.00,VWS V14.01,2013-12-02 06:08:00,
2013-12-02 00:09:00,38.7,31.1,29.85,NNE,30,0.0,0.0,74,0.00,,CLR,0.00,VWS V14.01,2013-12-02 06:09:00,
2013-12-02 00:11:00,38.7,31.1,29.85,NNE,30,0.0,0.0,74,0.00,,CLR,0.00,VWS V14.01,2013-12-02 06:11:00,
2013-12-02 00:12:00,38.7,31.1,29.85,NNE,30,0.0,0.0,74,0.00,,CLR,0.00,VWS V14.01,2013-12-02 06:12:00,
2013-12-02 00:13:00,38.7,31.1,29.85,NNE,30,0.0,0.0,74,0.00,,CLR,0.00,VWS V14.01,2013-12-02 06:13:00,
2013-12-02 00:14:00,38.7,31.1,29.85,NNE,30,0.0,0.0,74,0.00,,CLR,0.00,VWS V14.01,2013-12-02 06:14:00,
2013-12-02 00:15:00,38.7,31.1,29.85,NNE,30,0.0,0.0,74,0.00,,CLR,0.00,VWS V14.01,2013-12-02 06:15:00,
2013-12-02 00:16:00,38.7,31.1,29.85,NNE,30,0.0,0.0,74,0.00,,CLR,0.00,VWS V14.01,2013-12-02 06:16:00,
2013-12-02 00:17:00,38.7,31.1,29.85,NNE,30,0.0,0.0,74,0.00,,CLR,0.00,VWS V14.01,2013-12-02 06:17:00,
2013-12-02 00:18:00,38.7,31.1,29.85,NNE,30,0.0,0.0,74,0.00,,CLR,0.00,VWS V14.01,2013-12-02 06:18:00,
2013-12-02 00:19:00,38.7,31.1,29.85,NNE,30,0.0,0.0,74,0.00,,CLR,0.00,VWS V14.01,2013-12-02 06:19:00,
2013-12-02 00:20:00,38.7,31.1,29.85,NNE,30,0.0,0.0,74,0.00,,CLR,0.00,VWS V14.01,2013-12-02 06:20:00,
2013-12-02 00:22:00,38.5,31.0,29.85,NNE,30,0.0,0.0,74,0.00,,CLR,0.00,VWS V14.01,2013-12-02 06:22:00,
2013-12-02 00:23:00,38.5,31.0,29.85,NNE,30,0.0,0.0,74,0.00,,CLR,0.00,VWS V14.01,2013-12-02 06:23:00,
2013-12-02 00:24:00,38.5,31.0,29.85,NNE,30,0.0,0.0,74,0.00,,CLR,0.00,VWS V14.01,2013-12-02 06:24:00,
2013-12-02 00:25:00,38.5,31.0,29.85,NNE,30,0.0,0.0,74,0.00,,CLR,0.00,VWS V14.01,2013-12-02 06:25:00,
2013-12-02 00:26:00,38.5,31.0,29.85,NNE,30,0.0,0.0,74,0.00,,CLR,0.00,VWS V14.01,2013-12-02 06:26:00,
2013-12-02 00:27:00,38.4,31.2,29.85,NNE,30,0.0,0.0,75,0.00,,CLR,0.00,VWS V14.01,2013-12-02 06:27:00,
2013-12-02 00:29:00,38.4,31.2,29.85,NNE,30,0.0,0.0,75,0.00,,CLR,0.00,VWS V14.01,2013-12-02 06:29:00,
2013-12-02 00:30:00,38.4,31.2,29.84,ENE,68,0.0,2.0,75,0.00,,CLR,0.00,VWS V14.01,2013-12-02 06:30:00,
2013-12-02 00:32:00,38.4,31.2,29.84,ENE,68,0.0,2.0,75,0.00,,CLR,0.00,VWS V14.01,2013-12-02 06:32:00,
2013-12-02 00:33:00,38.4,31.2,29.84,ENE,68,0.0,2.0,75,0.00,,CLR,0.00,VWS V14.01,2013-12-02 06:33:00,
2013-12-02 00:34:00,38.4,31.2,29.84,ENE,71,0.0,2.0,75,0.00,,CLR,0.00,VWS V14.01,2013-12-02 06:34:00,
2013-12-02 00:36:00,38.5,31.3,29.84,ENE,71,0.0,2.0,75,0.00,,CLR,0.00,VWS V14.01,2013-12-02 06:36:00,
2013-12-02 00:37:00,38.5,31.3,29.84,ESE,122,0.0,2.0,75,0.00,,CLR,0.00,VWS V14.01,2013-12-02 06:37:00,
2013-12-02 00:38:00,38.5,31.3,29.84,ESE,121,0.0,2.0,75,0.00,,CLR,0.00,VWS V14.01,2013-12-02 06:38:00,
2013-12-02 00:39:00,38.7,31.5,29.84,ESE,117,0.0,2.0,75,0.00,,CLR,0.00,VWS V14.01,2013-12-02 06:39:00,
2013-12-02 00:41:00,38.7,31.5,29.84,ESE,106,0.0,2.0,75,0.00,,CLR,0.00,VWS V14.01,2013-12-02 06:41:00,
2013-12-02 00:42:00,38.7,31.5,29.84,ESE,106,0.0,2.0,75,0.00,,CLR,0.00,VWS V14.01,2013-12-02 06:42:00,
2013-12-02 00:44:00,38.7,31.5,29.84,ESE,106,0.0,2.0,75,0.00,,CLR,0.00,VWS V14.01,2013-12-02 06:44:00,
2013-12-02 00:47:00,38.8,31.6,29.84,East,98,0.0,2.0,75,0.00,,CLR,0.00,VWS V14.01,2013-12-02 06:47:00,
2013-12-02 00:48:00,38.8,31.6,29.84,East,98,0.0,2.0,75,0.00,,CLR,0.00,VWS V14.01,2013-12-02 06:48:00,
2013-12-02 00:49:00,38.8,31.6,29.84,East,98,0.0,2.0,75,0.00,,CLR,0.00,VWS V14.01,2013-12-02 06:49:00,
2013-12-02 00:53:00,38.8,31.6,29.84,East,98,0.0,2.0,75,0.00,,CLR,0.00,VWS V14.01,2013-12-02 06:53:00,
2013-12-02 00:54:00,38.8,31.6,29.84,East,98,0.0,2.0,75,0.00,,CLR,0.00,VWS V14.01,2013-12-02 06:54:00,
2013-12-02 00:55:00,38.8,31.6,29.84,East,98,0.0,2.0,75,0.00,,CLR,0.00,VWS V14.01,2013-12-02 06:55:00,
2013-12-02 00:58:00,38.7,31.5,29.84,East,98,0.0,2.0,75,0.00,,CLR,0.00,VWS V14.01,2013-12-02 06:58:00,
2013-12-02 00:59:00,38.8,31.6,29.84,East,98,0.0,2.0,75,0.00,,CLR,0.00,VWS V14.01,2013-12-02 06:59:00,
2013-12-02 01:00:00,38.8,31.6,29.84,East,98,0.0,2.0,75,0.00,,CLR,0.00,VWS V14.01,2013-12-02 07:00:00,
2013-12-02 01:03:00,38.8,31.6,29.84,East,98,0.0,0.0,75,0.00,,CLR,0.00,VWS V14.01,2013-12-02 07:03:00,
2013-12-02 01:04:00,38.8,31.6,29.84,East,98,0.0,0.0,75,0.00,,CLR,0.00,VWS V14.01,2013-12-02 07:04:00,
2013-12-02 01:05:00,38.8,31.6,29.84,East,98,0.0,0.0,75,0.00,,CLR,0.00,VWS V14.01,2013-12-02 07:05:00,
2013-12-02 01:08:00,38.8,31.6,29.84,East,98,0.0,0.0,75,0.00,,CLR,0.00,VWS V14.01,2013-12-02 07:08:00,
2013-12-02 01:09:00,38.8,31.6,29.84,East,98,0.0,0.0,75,0.00,,CLR,0.00,VWS V14.01,2013-12-02 07:09:00,
2013-12-02 01:10:00,38.7,31.5,29.84,East,98,0.0,0.0,75,0.00,,CLR,0.00,VWS V14.01,2013-12-02 07:10:00,
2013-12-02 01:13:00,38.7,31.5,29.84,East,98,0.0,0.0,75,0.00,,CLR,0.00,VWS V14.01,2013-12-02 07:13:00,
2013-12-02 01:14:00,38.7,31.5,29.84,East,98,0.0,0.0,75,0.00,,CLR,0.00,VWS V14.01,2013-12-02 07:14:00,
2013-12-02 01:15:00,38.7,31.5,29.85,East,98,0.0,0.0,75,0.00,,CLR,0.00,VWS V14.01,2013-12-02 07:15:00,
2013-12-02 01:18:00,38.7,31.5,29.85,East,98,0.0,0.0,75,0.00,,CLR,0.00,VWS V14.01,2013-12-02 07:18:00,
2013-12-02 01:19:00,38.7,31.5,29.85,East,98,0.0,0.0,75,0.00,,CLR,0.00,VWS V14.01,2013-12-02 07:19:00,
2013-12-02 01:20:00,38.7,31.5,29.85,East,98,0.0,0.0,75,0.00,,CLR,0.00,VWS V14.01,2013-12-02 07:20:00,
2013-12-02 01:23:00,38.7,31.5,29.85,East,98,0.0,0.0,75,0.00,,CLR,0.00,VWS V14.01,2013-12-02 07:23:00,
2013-12-02 01:24:00,38.5,31.3,29.85,East,98,0.0,0.0,75,0.00,,CLR,0.00,VWS V14.01,2013-12-02 07:24:00,
2013-12-02 01:25:00,38.5,31.3,29.85,East,98,0.0,0.0,75,0.00,,CLR,0.00,VWS V14.01,2013-12-02 07:25:00,
2013-12-02 01:28:00,38.5,31.3,29.85,East,98,0.0,0.0,75,0.00,,CLR,0.00,VWS V14.01,2013-12-02 07:28:00,
2013-12-02 01:30:00,38.5,31.3,29.85,East,98,0.0,0.0,75,0.00,,CLR,0.00,VWS V14.01,2013-12-02 07:30:00,
2013-12-02 01:33:00,38.4,31.5,29.85,East,98,0.0,0.0,76,0.00,,CLR,0.00,VWS V14.01,2013-12-02 07:33:00,
2013-12-02 01:35:00,38.4,31.5,29.85,East,98,0.0,0.0,76,0.00,,CLR,0.00,VWS V14.01,2013-12-02 07:35:00,
2013-12-02 01:38:00,38.2,31.3,29.85,East,98,0.0,0.0,76,0.00,,CLR,0.00,VWS V14.01,2013-12-02 07:38:00,
2013-12-02 01:40:00,38.2,31.6,29.85,East,98,0.0,0.0,77,0.00,,CLR,0.00,VWS V14.01,2013-12-02 07:40:00,
2013-12-02 01:41:00,38.2,31.6,29.85,East,98,0.0,0.0,77,0.00,,CLR,0.00,VWS V14.01,2013-12-02 07:41:00,
2013-12-02 01:43:00,38.1,31.5,29.85,East,98,0.0,0.0,77,0.00,,CLR,0.00,VWS V14.01,2013-12-02 07:43:00,
2013-12-02 01:45:00,38.1,31.5,29.85,East,98,0.0,0.0,77,0.00,,CLR,0.00,VWS V14.01,2013-12-02 07:45:00,
2013-12-02 01:46:00,38.1,31.5,29.85,East,98,0.0,0.0,77,0.00,,CLR,0.00,VWS V14.01,2013-12-02 07:46:00,
2013-12-02 01:48:00,38.1,31.5,29.85,East,98,0.0,0.0,77,0.00,,CLR,0.00,VWS V14.01,2013-12-02 07:48:00,
2013-12-02 01:50:00,38.1,31.5,29.85,East,98,0.0,0.0,77,0.00,,CLR,0.00,VWS V14.01,2013-12-02 07:50:00,
2013-12-02 01:51:00,38.1,31.5,29.85,East,98,0.0,0.0,77,0.00,,CLR,0.00,VWS V14.01,2013-12-02 07:51:00,
2013-12-02 01:54:00,38.1,31.5,29.85,East,98,0.0,0.0,77,0.00,,CLR,0.00,VWS V14.01,2013-12-02 07:54:00,
2013-12-02 01:55:00,38.1,31.5,29.85,East,98,0.0,0.0,77,0.00,,CLR,0.00,VWS V14.01,2013-12-02 07:55:00,
2013-12-02 01:56:00,38.1,31.5,29.85,East,98,0.0,0.0,77,0.00,,CLR,0.00,VWS V14.01,2013-12-02 07:56:00,
2013-12-02 01:59:00,38.1,31.5,29.85,East,98,0.0,0.0,77,0.00,,CLR,0.00,VWS V14.01,2013-12-02 07:59:00,
2013-12-02 02:00:00,38.1,31.5,29.85,East,98,0.0,0.0,77,0.00,,CLR,0.00,VWS V14.01,2013-12-02 08:00:00,
2013-12-02 02:01:00,38.1,31.5,29.85,East,98,0.0,0.0,77,0.00,,CLR,0.00,VWS V14.01,2013-12-02 08:01:00,
2013-12-02 02:02:00,38.1,31.5,29.85,East,98,0.0,0.0,77,0.00,,CLR,0.00,VWS V14.01,2013-12-02 08:02:00,
2013-12-02 02:04:00,38.1,31.5,29.85,East,98,0.0,0.0,77,0.00,,CLR,0.00,VWS V14.01,2013-12-02 08:04:00,
2013-12-02 02:06:00,38.1,31.5,29.85,East,98,0.0,0.0,77,0.00,,CLR,0.00,VWS V14.01,2013-12-02 08:06:00,
2013-12-02 02:07:00,38.1,31.5,29.85,East,98,0.0,0.0,77,0.00,,CLR,0.00,VWS V14.01,2013-12-02 08:07:00,
2013-12-02 02:09:00,38.1,31.5,29.85,East,98,0.0,0.0,77,0.00,,CLR,0.00,VWS V14.01,2013-12-02 08:09:00,
2013-12-02 02:11:00,37.9,31.4,29.85,East,98,0.0,0.0,77,0.00,,CLR,0.00,VWS V14.01,2013-12-02 08:11:00,
2013-12-02 02:12:00,37.9,31.4,29.85,East,98,0.0,0.0,77,0.00,,CLR,0.00,VWS V14.01,2013-12-02 08:12:00,
2013-12-02 02:14:00,37.9,31.4,29.85,East,98,0.0,0.0,77,0.00,,CLR,0.00,VWS V14.01,2013-12-02 08:14:00,
2013-12-02 02:16:00,37.9,31.4,29.84,East,98,0.0,0.0,77,0.00,,CLR,0.00,VWS V14.01,2013-12-02 08:16:00,
2013-12-02 02:17:00,37.9,31.4,29.84,East,98,0.0,0.0,77,0.00,,CLR,0.00,VWS V14.01,2013-12-02 08:17:00,
2013-12-02 02:19:00,37.9,31.4,29.84,East,98,0.0,0.0,77,0.00,,CLR,0.00,VWS V14.01,2013-12-02 08:19:00,
2013-12-02 02:21:00,37.9,31.4,29.84,East,98,0.0,0.0,77,0.00,,CLR,0.00,VWS V14.01,2013-12-02 08:21:00,
2013-12-02 02:22:00,37.9,31.4,29.84,East,98,0.0,0.0,77,0.00,,CLR,0.00,VWS V14.01,2013-12-02 08:22:00,
2013-12-02 02:23:00,37.9,31.4,29.84,East,98,0.0,0.0,77,0.00,,CLR,0.00,VWS V14.01,2013-12-02 08:23:00,
2013-12-02 02:24:00,37.9,31.4,29.84,East,98,0.0,0.0,77,0.00,,CLR,0.00,VWS V14.01,2013-12-02 08:24:00,
2013-12-02 02:26:00,37.8,31.2,29.84,East,98,0.0,0.0,77,0.00,,CLR,0.00,VWS V14.01,2013-12-02 08:26:00,
2013-12-02 02:27:00,37.9,31.4,29.84,East,98,0.0,0.0,77,0.00,,CLR,0.00,VWS V14.01,2013-12-02 08:27:00,
2013-12-02 02:28:00,37.9,31.4,29.84,East,98,0.0,0.0,77,0.00,,CLR,0.00,VWS V14.01,2013-12-02 08:28:00,
2013-12-02 02:30:00,37.9,31.4,29.84,East,98,0.0,0.0,77,0.00,,CLR,0.00,VWS V14.01,2013-12-02 08:30:00,
2013-12-02 02:31:00,37.9,31.4,29.84,East,98,0.0,0.0,77,0.00,,CLR,0.00,VWS V14.01,2013-12-02 08:31:00,
2013-12-02 02:33:00,37.9,31.4,29.84,East,98,0.0,0.0,77,0.00,,CLR,0.00,VWS V14.01,2013-12-02 08:33:00,
2013-12-02 02:34:00,37.9,31.4,29.84,East,98,0.0,0.0,77,0.00,,CLR,0.00,VWS V14.01,2013-12-02 08:34:00,
2013-12-02 02:35:00,37.9,31.4,29.84,East,98,0.0,0.0,77,0.00,,CLR,0.00,VWS V14.01,2013-12-02 08:35:00,
2013-12-02 02:36:00,37.8,31.2,29.84,East,98,0.0,0.0,77,0.00,,CLR,0.00,VWS V14.01,2013-12-02 08:36:00,
2013-12-02 02:38:00,37.9,31.4,29.84,East,98,0.0,0.0,77,0.00,,CLR,0.00,VWS V14.01,2013-12-02 08:38:00,
2013-12-02 02:40:00,37.9,31.4,29.84,East,98,0.0,0.0,77,0.00,,CLR,0.00,VWS V14.01,2013-12-02 08:40:00,
2013-12-02 02:41:00,37.9,31.4,29.84,East,98,0.0,0.0,77,0.00,,CLR,0.00,VWS V14.01,2013-12-02 08:41:00,
2013-12-02 02:43:00,37.9,31.4,29.84,East,98,0.0,0.0,77,0.00,,CLR,0.00,VWS V14.01,2013-12-02 08:43:00,
2013-12-02 02:45:00,37.8,31.2,29.83,East,98,0.0,0.0,77,0.00,,CLR,0.00,VWS V14.01,2013-12-02 08:45:00,
2013-12-02 02:46:00,37.8,31.2,29.83,East,98,0.0,0.0,77,0.00,,CLR,0.00,VWS V14.01,2013-12-02 08:46:00,
2013-12-02 02:48:00,37.8,31.2,29.83,East,98,0.0,0.0,77,0.00,,CLR,0.00,VWS V14.01,2013-12-02 08:48:00,
2013-12-02 02:50:00,37.8,31.2,29.83,East,98,0.0,0.0,77,0.00,,CLR,0.00,VWS V14.01,2013-12-02 08:50:00,
2013-12-02 02:51:00,37.8,31.2,29.83,East,98,0.0,0.0,77,0.00,,CLR,0.00,VWS V14.01,2013-12-02 08:51:00,
2013-12-02 02:53:00,37.8,31.2,29.83,East,98,0.0,0.0,77,0.00,,CLR,0.00,VWS V14.01,2013-12-02 08:53:00,
2013-12-02 02:56:00,37.8,31.2,29.83,East,98,0.0,0.0,77,0.00,,CLR,0.00,VWS V14.01,2013-12-02 08:56:00,
2013-12-02 02:57:00,37.7,31.1,29.83,East,98,0.0,0.0,77,0.00,,CLR,0.00,VWS V14.01,2013-12-02 08:57:00,
2013-12-02 02:58:00,37.7,31.1,29.83,East,98,0.0,0.0,77,0.00,,CLR,0.00,VWS V14.01,2013-12-02 08:58:00,
2013-12-02 03:00:00,37.7,31.1,29.83,East,98,0.0,0.0,77,0.00,,CLR,0.00,VWS V14.01,2013-12-02 09:00:00,
2013-12-02 03:01:00,37.7,31.1,29.83,East,98,0.0,0.0,77,0.00,,CLR,0.00,VWS V14.01,2013-12-02 09:01:00,
2013-12-02 03:02:00,37.7,31.1,29.83,East,98,0.0,0.0,77,0.00,,CLR,0.00,VWS V14.01,2013-12-02 09:02:00,
2013-12-02 03:03:00,37.7,31.1,29.83,East,98,0.0,0.0,77,0.00,,CLR,0.00,VWS V14.01,2013-12-02 09:03:00,
2013-12-02 03:05:00,37.7,31.1,29.83,East,98,0.0,0.0,77,0.00,,CLR,0.00,VWS V14.01,2013-12-02 09:05:00,
2013-12-02 03:06:00,37.5,31.0,29.83,East,98,0.0,0.0,77,0.00,,CLR,0.00,VWS V14.01,2013-12-02 09:06:00,
2013-12-02 03:07:00,37.5,31.0,29.83,East,98,0.0,0.0,77,0.00,,CLR,0.00,VWS V14.01,2013-12-02 09:07:00,
2013-12-02 03:08:00,37.5,31.0,29.83,East,98,0.0,0.0,77,0.00,,CLR,0.00,VWS V14.01,2013-12-02 09:08:00,
2013-12-02 03:10:00,37.5,31.0,29.83,East,98,0.0,0.0,77,0.00,,CLR,0.00,VWS V14.01,2013-12-02 09:10:00,
2013-12-02 03:11:00,37.5,31.0,29.83,East,98,0.0,0.0,77,0.00,,CLR,0.00,VWS V14.01,2013-12-02 09:11:00,
2013-12-02 03:12:00,37.5,31.0,29.83,East,98,0.0,0.0,77,0.00,,CLR,0.00,VWS V14.01,2013-12-02 09:12:00,
2013-12-02 03:13:00,37.5,31.3,29.83,East,98,0.0,0.0,78,0.00,,CLR,0.00,VWS V14.01,2013-12-02 09:13:00,
2013-12-02 03:14:00,37.5,31.0,29.83,East,98,0.0,0.0,77,0.00,,CLR,0.00,VWS V14.01,2013-12-02 09:14:00,
2013-12-02 03:15:00,37.4,31.2,29.83,East,98,0.0,0.0,78,0.00,,CLR,0.00,VWS V14.01,2013-12-02 09:15:00,
2013-12-02 03:16:00,37.4,31.2,29.83,East,98,0.0,0.0,78,0.00,,CLR,0.00,VWS V14.01,2013-12-02 09:16:00,
2013-12-02 03:17:00,37.4,31.2,29.83,East,98,0.0,0.0,78,0.00,,CLR,0.00,VWS V14.01,2013-12-02 09:17:00,
2013-12-02 03:18:00,37.4,31.2,29.83,East,98,0.0,0.0,78,0.00,,CLR,0.00,VWS V14.01,2013-12-02 09:18:00,
2013-12-02 03:19:00,37.4,31.2,29.83,East,98,0.0,0.0,78,0.00,,CLR,0.00,VWS V14.01,2013-12-02 09:19:00,
2013-12-02 03:20:00,37.2,31.0,29.83,East,98,0.0,0.0,78,0.00,,CLR,0.00,VWS V14.01,2013-12-02 09:20:00,
2013-12-02 03:21:00,37.2,31.0,29.83,East,98,0.0,0.0,78,0.00,,CLR,0.00,VWS V14.01,2013-12-02 09:21:00,
2013-12-02 03:22:00,37.2,31.0,29.83,East,98,0.0,0.0,78,0.00,,CLR,0.00,VWS V14.01,2013-12-02 09:22:00,
2013-12-02 03:23:00,37.2,31.0,29.83,East,98,0.0,0.0,78,0.00,,CLR,0.00,VWS V14.01,2013-12-02 09:23:00,
2013-12-02 03:24:00,37.1,30.9,29.83,East,98,0.0,0.0,78,0.00,,CLR,0.00,VWS V14.01,2013-12-02 09:24:00,
2013-12-02 03:26:00,37.1,31.2,29.83,East,98,0.0,0.0,79,0.00,,CLR,0.00,VWS V14.01,2013-12-02 09:26:00,
2013-12-02 03:27:00,36.9,31.0,29.83,East,98,0.0,0.0,79,0.00,,CLR,0.00,VWS V14.01,2013-12-02 09:27:00,
2013-12-02 03:28:00,36.9,31.0,29.83,East,98,0.0,0.0,79,0.00,,CLR,0.00,VWS V14.01,2013-12-02 09:28:00,
2013-12-02 03:30:00,36.9,31.0,29.83,East,98,0.0,0.0,79,0.00,,CLR,0.00,VWS V14.01,2013-12-02 09:30:00,
2013-12-02 03:31:00,36.8,30.9,29.83,East,98,0.0,0.0,79,0.00,,CLR,0.00,VWS V14.01,2013-12-02 09:31:00,
2013-12-02 03:32:00,36.8,30.9,29.83,East,98,0.0,0.0,79,0.00,,CLR,0.00,VWS V14.01,2013-12-02 09:32:00,
2013-12-02 03:33:00,36.8,31.2,29.83,East,97,0.0,0.0,80,0.00,,CLR,0.00,VWS V14.01,2013-12-02 09:33:00,
2013-12-02 03:35:00,36.8,31.2,29.83,East,97,0.0,0.0,80,0.00,,CLR,0.00,VWS V14.01,2013-12-02 09:35:00,
2013-12-02 03:37:00,36.8,31.2,29.83,East,97,0.0,0.0,80,0.00,,CLR,0.00,VWS V14.01,2013-12-02 09:37:00,
2013-12-02 03:38:00,36.8,31.2,29.83,East,97,0.0,0.0,80,0.00,,CLR,0.00,VWS V14.01,2013-12-02 09:38:00,
2013-12-02 03:40:00,36.8,31.2,29.83,East,97,0.0,0.0,80,0.00,,CLR,0.00,VWS V14.01,2013-12-02 09:40:00,
2013-12-02 03:42:00,36.7,31.1,29.83,East,97,0.0,0.0,80,0.00,,CLR,0.00,VWS V14.01,2013-12-02 09:42:00,
2013-12-02 03:43:00,36.7,31.1,29.83,East,97,0.0,0.0,80,0.00,,CLR,0.00,VWS V14.01,2013-12-02 09:43:00,
2013-12-02 03:44:00,36.7,31.1,29.83,ENE,69,0.0,2.0,80,0.00,,CLR,0.00,VWS V14.01,2013-12-02 09:44:00,
2013-12-02 03:45:00,36.7,31.1,29.82,ENE,59,0.0,2.0,80,0.00,,CLR,0.00,VWS V14.01,2013-12-02 09:45:00,
2013-12-02 03:47:00,36.7,31.1,29.82,ENE,59,0.0,2.0,80,0.00,,BKN041,0.00,VWS V14.01,2013-12-02 09:47:00,
2013-12-02 03:48:00,36.7,31.1,29.82,ENE,59,0.0,2.0,80,0.00,,BKN041,0.00,VWS V14.01,2013-12-02 09:48:00,
2013-12-02 03:49:00,36.7,31.1,29.82,ENE,59,0.0,2.0,80,0.00,,BKN041,0.00,VWS V14.01,2013-12-02 09:49:00,
2013-12-02 03:50:00,36.7,31.1,29.82,ENE,59,0.0,2.0,80,0.00,,BKN041,0.00,VWS V14.01,2013-12-02 09:50:00,
2013-12-02 03:52:00,36.7,31.1,29.82,ENE,59,0.0,2.0,80,0.00,,BKN041,0.00,VWS V14.01,2013-12-02 09:52:00,
2013-12-02 03:53:00,36.7,31.1,29.82,ENE,59,0.0,2.0,80,0.00,,BKN041,0.00,VWS V14.01,2013-12-02 09:53:00,
2013-12-02 03:54:00,36.5,30.9,29.82,ENE,59,0.0,2.0,80,0.00,,BKN041,0.00,VWS V14.01,2013-12-02 09:54:00,
2013-12-02 03:55:00,36.5,30.9,29.82,ENE,59,0.0,2.0,80,0.00,,BKN041,0.00,VWS V14.01,2013-12-02 09:55:00,
2013-12-02 03:57:00,36.5,30.9,29.82,ENE,59,0.0,2.0,80,0.00,,BKN041,0.00,VWS V14.01,2013-12-02 09:57:00,
2013-12-02 03:58:00,36.5,30.9,29.82,ENE,59,0.0,2.0,80,0.00,,BKN041,0.00,VWS V14.01,2013-12-02 09:58:00,
2013-12-02 03:59:00,36.5,30.9,29.82,ENE,59,0.0,2.0,80,0.00,,BKN041,0.00,VWS V14.01,2013-12-02 09:59:00,
2013-12-02 04:00:00,36.5,30.9,29.82,ENE,59,0.0,2.0,80,0.00,,BKN041,0.00,VWS V14.01,2013-12-02 10:00:00,
2013-12-02 04:02:00,36.4,30.8,29.82,ENE,59,0.0,0.0,80,0.00,,BKN043,0.00,VWS V14.01,2013-12-02 10:02:00,
2013-12-02 04:03:00,36.4,30.8,29.82,ENE,59,0.0,0.0,80,0.00,,BKN043,0.00,VWS V14.01,2013-12-02 10:03:00,
2013-12-02 04:04:00,36.4,30.8,29.82,ENE,59,0.0,0.0,80,0.00,,BKN043,0.00,VWS V14.01,2013-12-02 10:04:00,
2013-12-02 04:05:00,36.4,30.8,29.82,ENE,59,0.0,0.0,80,0.00,,BKN043,0.00,VWS V14.01,2013-12-02 10:05:00,
2013-12-02 04:07:00,36.2,30.9,29.82,ENE,59,0.0,0.0,81,0.00,,BKN043,0.00,VWS V14.01,2013-12-02 10:07:00,
2013-12-02 04:08:00,36.2,30.9,29.82,ENE,59,0.0,0.0,81,0.00,,BKN043,0.00,VWS V14.01,2013-12-02 10:08:00,
2013-12-02 04:09:00,36.2,30.9,29.82,ENE,59,0.0,0.0,81,0.00,,BKN043,0.00,VWS V14.01,2013-12-02 10:09:00,
2013-12-02 04:10:00,36.2,30.9,29.82,ENE,59,0.0,0.0,81,0.00,,BKN043,0.00,VWS V14.01,2013-12-02 10:10:00,
2013-12-02 04:12:00,36.2,30.9,29.82,ENE,59,0.0,0.0,81,0.00,,BKN043,0.00,VWS V14.01,2013-12-02 10:12:00,
2013-12-02 04:13:00,36.2,30.9,29.82,ENE,59,0.0,0.0,81,0.00,,BKN043,0.00,VWS V14.01,2013-12-02 10:13:00,
2013-12-02 04:14:00,36.2,30.9,29.82,ENE,59,0.0,0.0,81,0.00,,BKN043,0.00,VWS V14.01,2013-12-02 10:14:00,
2013-12-02 04:15:00,36.2,30.9,29.82,ENE,59,0.0,0.0,81,0.00,,BKN043,0.00,VWS V14.01,2013-12-02 10:15:00,
2013-12-02 04:18:00,36.2,30.9,29.82,ENE,59,0.0,0.0,81,0.00,,BKN043,0.00,VWS V14.01,2013-12-02 10:18:00,
2013-12-02 04:19:00,36.2,30.9,29.82,ENE,59,0.0,0.0,81,0.00,,BKN043,0.00,VWS V14.01,2013-12-02 10:19:00,
2013-12-02 04:20:00,36.2,30.9,29.82,ENE,59,0.0,0.0,81,0.00,,BKN043,0.00,VWS V14.01,2013-12-02 10:20:00,
2013-12-02 04:23:00,36.2,30.9,29.82,ENE,59,0.0,0.0,81,0.00,,BKN043,0.00,VWS V14.01,2013-12-02 10:23:00,
2013-12-02 04:24:00,36.2,30.9,29.82,ENE,59,0.0,0.0,81,0.00,,BKN043,0.00,VWS V14.01,2013-12-02 10:24:00,
2013-12-02 04:25:00,36.4,31.1,29.82,ENE,59,0.0,0.0,81,0.00,,BKN043,0.00,VWS V14.01,2013-12-02 10:25:00,
2013-12-02 04:27:00,36.4,31.1,29.82,ENE,59,0.0,0.0,81,0.00,,BKN043,0.00,VWS V14.01,2013-12-02 10:27:00,
2013-12-02 04:29:00,36.4,31.1,29.82,ENE,59,0.0,0.0,81,0.00,,BKN043,0.00,VWS V14.01,2013-12-02 10:29:00,
2013-12-02 04:30:00,36.4,31.1,29.81,ENE,59,0.0,0.0,81,0.00,,BKN043,0.00,VWS V14.01,2013-12-02 10:30:00,
2013-12-02 04:33:00,36.4,31.1,29.81,ENE,59,0.0,0.0,81,0.00,,BKN043,0.00,VWS V14.01,2013-12-02 10:33:00,
2013-12-02 04:34:00,36.5,31.2,29.81,ENE,59,0.0,0.0,81,0.00,,BKN043,0.00,VWS V14.01,2013-12-02 10:34:00,
2013-12-02 04:35:00,36.5,31.2,29.81,ENE,59,0.0,0.0,81,0.00,,BKN043,0.00,VWS V14.01,2013-12-02 10:35:00,
2013-12-02 04:38:00,36.5,31.2,29.81,ENE,59,0.0,0.0,81,0.00,,BKN043,0.00,VWS V14.01,2013-12-02 10:38:00,
2013-12-02 04:39:00,36.5,31.2,29.81,ENE,59,0.0,0.0,81,0.00,,BKN043,0.00,VWS V14.01,2013-12-02 10:39:00,
2013-12-02 04:40:00,36.5,31.2,29.81,ENE,59,0.0,0.0,81,0.00,,BKN043,0.00,VWS V14.01,2013-12-02 10:40:00,
2013-12-02 04:43:00,36.7,31.4,29.81,ENE,60,1.0,2.0,81,0.00,,BKN043,0.00,VWS V14.01,2013-12-02 10:43:00,
2013-12-02 04:44:00,36.7,31.4,29.81,ENE,60,0.0,2.0,81,0.00,,BKN043,0.00,VWS V14.01,2013-12-02 10:44:00,
2013-12-02 04:45:00,36.7,31.1,29.80,ENE,60,0.0,2.0,80,0.00,,,0.00,VWS V14.01,2013-12-02 10:45:00,
2013-12-02 04:46:00,36.7,31.1,29.80,ENE,60,0.0,2.0,80,0.00,,,0.00,VWS V14.01,2013-12-02 10:46:00,
2013-12-02 04:48:00,36.7,31.1,29.80,ENE,60,0.0,2.0,80,0.00,,,0.00,VWS V14.01,2013-12-02 10:48:00,
2013-12-02 04:49:00,36.7,31.1,29.80,ENE,60,0.0,2.0,80,0.00,,,0.00,VWS V14.01,2013-12-02 10:49:00,
2013-12-02 04:50:00,36.7,31.1,29.80,ENE,60,0.0,2.0,80,0.00,,,0.00,VWS V14.01,2013-12-02 10:50:00,
2013-12-02 04:51:00,36.7,31.1,29.80,ENE,60,0.0,2.0,80,0.00,,,0.00,VWS V14.01,2013-12-02 10:51:00,
2013-12-02 04:52:00,36.7,31.1,29.80,ENE,60,0.0,2.0,80,0.00,,,0.00,VWS V14.01,2013-12-02 10:52:00,
2013-12-02 04:53:00,36.7,31.1,29.80,ENE,60,0.0,2.0,80,0.00,,,0.00,VWS V14.01,2013-12-02 10:53:00,
2013-12-02 04:54:00,36.7,31.1,29.80,ENE,60,0.0,2.0,80,0.00,,,0.00,VWS V14.01,2013-12-02 10:54:00,
2013-12-02 04:55:00,36.7,31.1,29.80,ENE,60,0.0,2.0,80,0.00,,,0.00,VWS V14.01,2013-12-02 10:55:00,
2013-12-02 04:56:00,36.8,31.2,29.80,ENE,60,0.0,2.0,80,0.00,,,0.00,VWS V14.01,2013-12-02 10:56:00,
2013-12-02 04:57:00,36.8,31.2,29.80,ENE,60,0.0,2.0,80,0.00,,,0.00,VWS V14.01,2013-12-02 10:57:00,
2013-12-02 04:58:00,36.8,31.2,29.80,ENE,60,0.0,2.0,80,0.00,,,0.00,VWS V14.01,2013-12-02 10:58:00,
2013-12-02 04:59:00,36.8,31.2,29.80,ENE,60,0.0,2.0,80,0.00,,,0.00,VWS V14.01,2013-12-02 10:59:00,
2013-12-02 05:00:00,36.8,31.2,29.80,ENE,60,0.0,2.0,80,0.00,,,0.00,VWS V14.01,2013-12-02 11:00:00,
2013-12-02 05:01:00,36.8,31.2,29.80,ENE,60,0.0,2.0,80,0.00,,,0.00,VWS V14.01,2013-12-02 11:01:00,
2013-12-02 05:02:00,36.8,31.2,29.80,ENE,60,0.0,0.0,80,0.00,,,0.00,VWS V14.01,2013-12-02 11:02:00,
2013-12-02 05:03:00,36.8,31.2,29.80,ENE,69,2.0,2.0,80,0.00,,,0.00,VWS V14.01,2013-12-02 11:03:00,
2013-12-02 05:05:00,36.8,31.2,29.80,ENE,69,0.0,3.0,80,0.00,,,0.00,VWS V14.01,2013-12-02 11:05:00,
2013-12-02 05:06:00,36.8,31.2,29.80,ENE,69,0.0,3.0,80,0.00,,,0.00,VWS V14.01,2013-12-02 11:06:00,
2013-12-02 05:07:00,36.8,31.2,29.80,East,95,0.0,3.0,80,0.00,,,0.00,VWS V14.01,2013-12-02 11:07:00,
2013-12-02 05:09:00,36.8,31.2,29.80,East,90,0.0,3.0,80,0.00,,,0.00,VWS V14.01,2013-12-02 11:09:00,
2013-12-02 05:10:00,36.8,31.2,29.80,East,90,0.0,3.0,80,0.00,,,0.00,VWS V14.01,2013-12-02 11:10:00,
2013-12-02 05:11:00,36.8,31.2,29.80,East,90,0.0,3.0,80,0.00,,,0.00,VWS V14.01,2013-12-02 11:11:00,
2013-12-02 05:12:00,36.8,31.2,29.80,East,88,0.0,3.0,80,0.00,,,0.00,VWS V14.01,2013-12-02 11:12:00,
2013-12-02 05:14:00,36.8,31.2,29.80,East,90,0.0,3.0,80,0.00,,,0.00,VWS V14.01,2013-12-02 11:14:00,
2013-12-02 05:15:00,36.8,31.2,29.80,East,82,0.0,4.0,80,0.00,,,0.00,VWS V14.01,2013-12-02 11:15:00,
2013-12-02 05:16:00,36.8,31.2,29.80,East,101,3.0,4.0,80,0.00,,,0.00,VWS V14.01,2013-12-02 11:16:00,
2013-12-02 05:18:00,36.8,31.2,29.80,East,88,0.0,4.0,80,0.00,,,0.00,VWS V14.01,2013-12-02 11:18:00,
2013-12-02 05:19:00,36.8,31.2,29.80,East,88,0.0,4.0,80,0.00,,,0.00,VWS V14.01,2013-12-02 11:19:00,
2013-12-02 05:20:00,36.8,31.2,29.80,East,88,0.0,4.0,80,0.00,,,0.00,VWS V14.01,2013-12-02 11:20:00,
2013-12-02 05:21:00,36.8,31.2,29.80,East,88,0.0,4.0,80,0.00,,,0.00,VWS V14.01,2013-12-02 11:21:00,
2013-12-02 05:22:00,36.8,31.2,29.80,East,88,0.0,4.0,80,0.00,,,0.00,VWS V14.01,2013-12-02 11:22:00,
2013-12-02 05:24:00,36.8,31.2,29.80,East,88,0.0,4.0,80,0.00,,,0.00,VWS V14.01,2013-12-02 11:24:00,
2013-12-02 05:25:00,36.8,31.2,29.80,East,90,2.0,4.0,80,0.00,,,0.00,VWS V14.01,2013-12-02 11:25:00,
2013-12-02 05:26:00,36.8,31.2,29.80,East,90,0.0,4.0,80,0.00,,,0.00,VWS V14.01,2013-12-02 11:26:00,
2013-12-02 05:27:00,36.8,31.2,29.80,East,90,0.0,4.0,80,0.00,,,0.00,VWS V14.01,2013-12-02 11:27:00,
2013-12-02 05:29:00,36.8,31.2,29.79,East,93,4.0,4.0,80,0.00,,,0.00,VWS V14.01,2013-12-02 11:29:00,
2013-12-02 05:30:00,36.8,31.2,29.79,ENE,71,0.0,0.0,80,0.00,,,0.00,VWS V14.01,2013-12-02 11:30:00,
2013-12-02 05:31:00,36.8,31.2,29.79,ENE,73,0.0,1.0,80,0.00,,,0.00,VWS V14.01,2013-12-02 11:31:00,
2013-12-02 05:32:00,36.8,31.2,29.79,ENE,73,0.0,1.0,80,0.00,,,0.00,VWS V14.01,2013-12-02 11:32:00,
2013-12-02 05:34:00,36.8,31.2,29.79,East,83,0.0,1.0,80,0.00,,,0.00,VWS V14.01,2013-12-02 11:34:00,
2013-12-02 05:35:00,36.8,31.2,29.79,East,88,0.0,1.0,80,0.00,,,0.00,VWS V14.01,2013-12-02 11:35:00,
2013-12-02 05:37:00,36.8,31.2,29.79,ENE,61,0.0,1.0,80,0.00,,,0.00,VWS V14.01,2013-12-02 11:37:00,
2013-12-02 05:39:00,36.8,31.2,29.79,ENE,62,1.0,1.0,80,0.00,,,0.00,VWS V14.01,2013-12-02 11:39:00,
2013-12-02 05:40:00,36.8,31.2,29.79,ENE,63,0.0,2.0,80,0.00,,,0.00,VWS V14.01,2013-12-02 11:40:00,
2013-12-02 05:42:00,36.8,31.2,29.79,ENE,69,0.0,2.0,80,0.00,,,0.00,VWS V14.01,2013-12-02 11:42:00,
2013-12-02 05:44:00,36.9,31.3,29.79,East,79,0.0,3.0,80,0.00,,,0.00,VWS V14.01,2013-12-02 11:44:00,
2013-12-02 05:45:00,36.9,31.3,29.79,East,79,0.0,3.0,80,0.00,,,0.00,VWS V14.01,2013-12-02 11:45:00,
2013-12-02 05:47:00,36.9,31.3,29.79,East,86,0.0,3.0,80,0.00,,,0.00,VWS V14.01,2013-12-02 11:47:00,
2013-12-02 05:48:00,36.9,31.3,29.79,ESE,107,0.0,3.0,80,0.00,,,0.00,VWS V14.01,2013-12-02 11:48:00,
2013-12-02 05:49:00,36.9,31.3,29.79,East,83,0.0,3.0,80,0.00,,,0.00,VWS V14.01,2013-12-02 11:49:00,
2013-12-02 05:50:00,36.9,31.3,29.79,East,84,0.0,3.0,80,0.00,,,0.00,VWS V14.01,2013-12-02 11:50:00,
2013-12-02 05:51:00,36.9,31.3,29.79,East,85,0.0,3.0,80,0.00,,,0.00,VWS V14.01,2013-12-02 11:51:00,
2013-12-02 05:52:00,36.9,31.3,29.79,East,84,0.0,3.0,80,0.00,,,0.00,VWS V14.01,2013-12-02 11:52:00,
2013-12-02 05:53:00,36.9,31.3,29.79,East,94,2.0,5.0,80,0.00,,,0.00,VWS V14.01,2013-12-02 11:53:00,
2013-12-02 05:55:00,37.1,31.5,29.79,East,92,3.0,6.0,80,0.00,,,0.00,VWS V14.01,2013-12-02 11:55:00,
2013-12-02 05:56:00,37.1,31.5,29.79,ESE,103,4.0,6.0,80,0.00,,,0.00,VWS V14.01,2013-12-02 11:56:00,
2013-12-02 05:57:00,37.1,31.5,29.79,East,95,2.0,6.0,80,0.00,,,0.00,VWS V14.01,2013-12-02 11:57:00,
2013-12-02 05:58:00,37.1,31.5,29.79,East,91,0.0,6.0,80,0.00,,,0.00,VWS V14.01,2013-12-02 11:58:00,
2013-12-02 06:00:00,37.2,31.6,29.78,East,94,0.0,6.0,80,0.00,,,0.00,VWS V14.01,2013-12-02 12:00:00,
2013-12-02 06:01:00,37.2,31.6,29.78,East,94,0.0,0.0,80,0.00,,,0.00,VWS V14.01,2013-12-02 12:01:00,
2013-12-02 06:02:00,37.4,31.8,29.78,East,92,0.0,0.0,80,0.00,,,0.00,VWS V14.01,2013-12-02 12:02:00,
2013-12-02 06:03:00,37.4,31.8,29.78,East,92,0.0,0.0,80,0.00,,,0.00,VWS V14.01,2013-12-02 12:03:00,
2013-12-02 06:05:00,37.4,31.8,29.78,East,91,0.0,0.0,80,0.00,,,0.00,VWS V14.01,2013-12-02 12:05:00,
2013-12-02 06:06:00,37.4,31.8,29.78,East,91,0.0,0.0,80,0.00,,,0.00,VWS V14.01,2013-12-02 12:06:00,
2013-12-02 06:07:00,37.4,31.8,29.78,East,92,0.0,0.0,80,0.00,,,0.00,VWS V14.01,2013-12-02 12:07:00,
2013-12-02 06:08:00,37.5,31.9,29.78,East,92,1.0,1.0,80,0.00,,,0.00,VWS V14.01,2013-12-02 12:08:00,
2013-12-02 06:10:00,37.5,31.9,29.78,East,100,0.0,2.0,80,0.00,,,0.00,VWS V14.01,2013-12-02 12:10:00,
2013-12-02 06:11:00,37.5,31.9,29.78,East,101,0.0,2.0,80,0.00,,,0.00,VWS V14.01,2013-12-02 12:11:00,
2013-12-02 06:12:00,37.5,31.9,29.78,East,100,0.0,2.0,80,0.00,,,0.00,VWS V14.01,2013-12-02 12:12:00,
2013-12-02 06:13:00,37.5,31.6,29.78,East,100,0.0,2.0,79,0.00,,,0.00,VWS V14.01,2013-12-02 12:13:00,
2013-12-02 06:15:00,37.7,31.8,29.79,East,100,0.0,2.0,79,0.00,,,0.00,VWS V14.01,2013-12-02 12:15:00,
2013-12-02 06:16:00,37.7,31.8,29.79,East,100,0.0,2.0,79,0.00,,,0.00,VWS V14.01,2013-12-02 12:16:00,
2013-12-02 06:17:00,37.7,31.8,29.79,East,100,0.0,2.0,79,0.00,,,0.00,VWS V14.01,2013-12-02 12:17:00,
2013-12-02 06:18:00,37.7,31.8,29.79,East,100,0.0,2.0,79,0.00,,,0.00,VWS V14.01,2013-12-02 12:18:00,
2013-12-02 06:20:00,37.7,31.8,29.79,ENE,69,2.0,3.0,79,0.00,,,0.00,VWS V14.01,2013-12-02 12:20:00,
2013-12-02 06:21:00,37.7,31.8,29.79,ENE,75,0.0,4.0,79,0.00,,,0.00,VWS V14.01,2013-12-02 12:21:00,
2013-12-02 06:22:00,37.7,31.8,29.79,ESE,102,4.0,6.0,79,0.00,,,0.00,VWS V14.01,2013-12-02 12:22:00,
2013-12-02 06:23:00,37.7,31.8,29.79,ENE,70,1.0,6.0,79,0.00,,,0.00,VWS V14.01,2013-12-02 12:23:00,
2013-12-02 06:25:00,37.7,31.8,29.79,ENE,78,0.0,6.0,79,0.00,,,0.00,VWS V14.01,2013-12-02 12:25:00,
2013-12-02 06:26:00,37.7,31.8,29.79,ENE,78,0.0,6.0,79,0.00,,,0.00,VWS V14.01,2013-12-02 12:26:00,
2013-12-02 06:27:00,37.7,31.8,29.79,ENE,78,0.0,6.0,79,0.00,,,0.00,VWS V14.01,2013-12-02 12:27:00,
2013-12-02 06:28:00,37.7,31.8,29.79,ENE,78,0.0,6.0,79,0.00,,,0.00,VWS V14.01,2013-12-02 12:28:00,
2013-12-02 06:30:00,37.7,31.8,29.78,ENE,78,0.0,6.0,79,0.00,,,0.00,VWS V14.01,2013-12-02 12:30:00,
2013-12-02 06:31:00,37.7,31.8,29.78,ENE,78,0.0,0.0,79,0.00,,,0.00,VWS V14.01,2013-12-02 12:31:00,
2013-12-02 06:33:00,37.7,31.8,29.78,ENE,78,0.0,0.0,79,0.00,,,0.00,VWS V14.01,2013-12-02 12:33:00,
2013-12-02 06:35:00,37.7,31.8,29.78,East,79,0.0,1.0,79,0.00,,,0.00,VWS V14.01,2013-12-02 12:35:00,
2013-12-02 06:36:00,37.7,31.8,29.78,East,79,0.0,1.0,79,0.00,,,0.00,VWS V14.01,2013-12-02 12:36:00,
2013-12-02 06:38:00,37.7,31.8,29.78,East,80,3.0,3.0,79,0.00,,,0.00,VWS V14.01,2013-12-02 12:38:00,
2013-12-02 06:40:00,37.7,31.8,29.78,East,80,0.0,3.0,79,0.00,,,0.00,VWS V14.01,2013-12-02 12:40:00,
2013-12-02 06:41:00,37.7,31.8,29.78,East,80,0.0,3.0,79,0.00,,,0.00,VWS V14.01,2013-12-02 12:41:00,
2013-12-02 06:43:00,37.7,31.8,29.78,East,80,0.0,3.0,79,0.00,,,0.00,VWS V14.01,2013-12-02 12:43:00,
2013-12-02 06:45:00,37.7,31.8,29.78,East,80,0.0,3.0,79,0.00,,,0.00,VWS V14.01,2013-12-02 12:45:00,
2013-12-02 06:46:00,37.7,31.8,29.78,East,80,0.0,3.0,79,0.00,,,0.00,VWS V14.01,2013-12-02 12:46:00,
2013-12-02 06:48:00,37.7,31.8,29.78,East,80,0.0,3.0,79,0.00,,,0.00,VWS V14.01,2013-12-02 12:48:00,
2013-12-02 06:49:00,37.7,31.8,29.78,East,80,0.0,3.0,79,0.00,,,0.00,VWS V14.01,2013-12-02 12:49:00,
2013-12-02 06:50:00,37.7,31.8,29.78,East,80,0.0,3.0,79,0.00,,,0.00,VWS V14.01,2013-12-02 12:50:00,
2013-12-02 06:51:00,37.7,31.8,29.78,East,80,0.0,3.0,79,0.00,,,0.00,VWS V14.01,2013-12-02 12:51:00,
2013-12-02 06:53:00,37.7,31.8,29.78,East,80,0.0,3.0,79,0.00,,,0.00,VWS V14.01,2013-12-02 12:53:00,
2013-12-02 06:54:00,37.7,31.8,29.78,East,80,0.0,3.0,79,0.00,,,0.00,VWS V14.01,2013-12-02 12:54:00,
2013-12-02 06:55:00,37.7,31.8,29.78,East,80,0.0,3.0,79,0.00,,,0.00,VWS V14.01,2013-12-02 12:55:00,
2013-12-02 06:56:00,37.7,31.8,29.78,East,80,0.0,3.0,79,0.00,,,0.00,VWS V14.01,2013-12-02 12:56:00,
2013-12-02 06:57:00,37.7,31.8,29.78,East,80,0.0,3.0,79,0.00,,,0.00,VWS V14.01,2013-12-02 12:57:00,
2013-12-02 06:58:00,37.7,31.8,29.78,East,80,0.0,3.0,79,0.00,,,0.00,VWS V14.01,2013-12-02 12:58:00,
2013-12-02 06:59:00,37.7,31.8,29.78,East,80,0.0,3.0,79,0.00,,,0.00,VWS V14.01,2013-12-02 12:59:00,
2013-12-02 07:00:00,37.7,31.8,29.78,East,80,0.0,3.0,79,0.00,,CLR,0.00,VWS V14.01,2013-12-02 13:00:00,
2013-12-02 07:01:00,37.7,31.8,29.78,East,80,0.0,0.0,79,0.00,,,0.00,VWS V14.01,2013-12-02 13:01:00,
2013-12-02 07:02:00,37.7,32.1,29.78,East,80,0.0,0.0,80,0.00,,,0.00,VWS V14.01,2013-12-02 13:02:00,
2013-12-02 07:04:00,37.7,32.1,29.78,East,80,0.0,0.0,80,0.00,,,0.00,VWS V14.01,2013-12-02 13:04:00,
2013-12-02 07:06:00,37.5,31.9,29.78,East,80,0.0,0.0,80,0.00,,,0.00,VWS V14.01,2013-12-02 13:06:00,
2013-12-02 07:07:00,37.5,31.9,29.78,East,80,0.0,0.0,80,0.00,,,0.00,VWS V14.01,2013-12-02 13:07:00,
2013-12-02 07:09:00,37.5,31.9,29.78,East,80,0.0,0.0,80,0.00,,,0.00,VWS V14.01,2013-12-02 13:09:00,
2013-12-02 07:11:00,37.5,31.9,29.78,East,80,0.0,0.0,80,0.00,,,0.00,VWS V14.01,2013-12-02 13:11:00,
2013-12-02 07:12:00,37.5,31.9,29.78,East,80,0.0,0.0,80,0.00,,,0.00,VWS V14.01,2013-12-02 13:12:00,
2013-12-02 07:13:00,37.7,32.1,29.78,East,80,0.0,0.0,80,0.00,,,0.00,VWS V14.01,2013-12-02 13:13:00,
2013-12-02 07:14:00,37.5,31.9,29.78,East,80,0.0,0.0,80,0.00,,,0.00,VWS V14.01,2013-12-02 13:14:00,
2013-12-02 07:15:00,37.7,32.1,29.78,East,80,0.0,0.0,80,0.00,,,0.00,VWS V14.01,2013-12-02 13:15:00,
2013-12-02 07:16:00,37.5,31.9,29.78,East,80,0.0,0.0,80,0.00,,,0.00,VWS V14.01,2013-12-02 13:16:00,
2013-12-02 07:17:00,37.5,31.9,29.78,East,80,0.0,0.0,80,0.00,,,0.00,VWS V14.01,2013-12-02 13:17:00,
2013-12-02 07:18:00,37.5,31.9,29.78,East,80,0.0,0.0,80,0.00,,,0.00,VWS V14.01,2013-12-02 13:18:00,
2013-12-02 07:19:00,37.5,31.9,29.78,East,80,0.0,0.0,80,0.00,,,0.00,VWS V14.01,2013-12-02 13:19:00,
2013-12-02 07:20:00,37.5,31.9,29.78,East,80,0.0,0.0,80,0.00,,,0.00,VWS V14.01,2013-12-02 13:20:00,
2013-12-02 07:21:00,37.5,31.9,29.78,East,80,0.0,0.0,80,0.00,,,0.00,VWS V14.01,2013-12-02 13:21:00,
2013-12-02 07:22:00,37.5,31.9,29.78,East,80,0.0,0.0,80,0.00,,,0.00,VWS V14.01,2013-12-02 13:22:00,
2013-12-02 07:24:00,37.5,31.9,29.78,East,80,0.0,0.0,80,0.00,,,0.00,VWS V14.01,2013-12-02 13:24:00,
2013-12-02 07:25:00,37.5,31.9,29.78,East,80,0.0,0.0,80,0.00,,,0.00,VWS V14.01,2013-12-02 13:25:00,
2013-12-02 07:26:00,37.5,31.9,29.78,East,80,0.0,0.0,80,0.00,,,0.00,VWS V14.01,2013-12-02 13:26:00,
2013-12-02 07:27:00,37.5,31.9,29.78,East,80,0.0,0.0,80,0.00,,,0.00,VWS V14.01,2013-12-02 13:27:00,
2013-12-02 07:29:00,37.5,31.9,29.78,East,80,0.0,0.0,80,0.00,,,0.00,VWS V14.01,2013-12-02 13:29:00,
2013-12-02 07:30:00,37.5,31.9,29.79,East,80,0.0,0.0,80,0.00,,,0.00,VWS V14.01,2013-12-02 13:30:00,
2013-12-02 07:31:00,37.5,31.9,29.79,East,80,0.0,0.0,80,0.00,,,0.00,VWS V14.01,2013-12-02 13:31:00,
2013-12-02 07:32:00,37.5,31.9,29.79,East,80,0.0,0.0,80,0.00,,,0.00,VWS V14.01,2013-12-02 13:32:00,
2013-12-02 07:33:00,37.5,31.9,29.79,East,80,0.0,0.0,80,0.00,,,0.00,VWS V14.01,2013-12-02 13:33:00,
2013-12-02 07:34:00,37.5,31.9,29.79,East,80,0.0,0.0,80,0.00,,,0.00,VWS V14.01,2013-12-02 13:34:00,
2013-12-02 07:35:00,37.5,31.9,29.79,East,81,0.0,1.0,80,0.00,,,0.00,VWS V14.01,2013-12-02 13:35:00,
2013-12-02 07:36:00,37.7,32.1,29.79,East,81,0.0,1.0,80,0.00,,,0.00,VWS V14.01,2013-12-02 13:36:00,
2013-12-02 07:37:00,37.7,32.1,29.79,East,81,0.0,1.0,80,0.00,,,0.00,VWS V14.01,2013-12-02 13:37:00,
2013-12-02 07:38:00,37.7,32.1,29.79,East,81,0.0,1.0,80,0.00,,,0.00,VWS V14.01,2013-12-02 13:38:00,
2013-12-02 07:40:00,37.7,32.1,29.79,East,81,0.0,1.0,80,0.00,,,0.00,VWS V14.01,2013-12-02 13:40:00,
2013-12-02 07:41:00,37.7,32.1,29.79,East,81,0.0,1.0,80,0.00,,,0.00,VWS V14.01,2013-12-02 13:41:00,
2013-12-02 07:42:00,37.7,32.1,29.79,East,81,0.0,1.0,80,0.00,,,0.00,VWS V14.01,2013-12-02 13:42:00,
2013-12-02 07:43:00,37.7,32.1,29.79,East,81,0.0,1.0,80,0.00,,,0.00,VWS V14.01,2013-12-02 13:43:00,
2013-12-02 07:45:00,37.7,32.1,29.78,East,81,0.0,1.0,80,0.00,,,0.00,VWS V14.01,2013-12-02 13:45:00,
2013-12-02 07:46:00,37.7,32.1,29.78,East,81,0.0,1.0,80,0.00,,,0.00,VWS V14.01,2013-12-02 13:46:00,
2013-12-02 07:47:00,37.7,32.1,29.78,East,81,0.0,1.0,80,0.00,,,0.00,VWS V14.01,2013-12-02 13:47:00,
2013-12-02 07:48:00,37.7,32.1,29.78,East,81,0.0,1.0,80,0.00,,,0.00,VWS V14.01,2013-12-02 13:48:00,
2013-12-02 07:51:00,37.7,32.1,29.78,East,81,0.0,1.0,80,0.00,,,0.00,VWS V14.01,2013-12-02 13:51:00,
2013-12-02 07:52:00,37.7,32.1,29.78,East,81,0.0,1.0,80,0.00,,,0.00,VWS V14.01,2013-12-02 13:52:00,
2013-12-02 07:53:00,37.7,32.1,29.78,East,81,0.0,1.0,80,0.00,,,0.00,VWS V14.01,2013-12-02 13:53:00,
2013-12-02 07:56:00,37.7,32.1,29.78,East,98,2.0,2.0,80,0.00,,,0.00,VWS V14.01,2013-12-02 13:56:00,
2013-12-02 07:57:00,37.7,32.1,29.78,East,98,0.0,2.0,80,0.00,,,0.00,VWS V14.01,2013-12-02 13:57:00,
2013-12-02 07:58:00,37.7,32.1,29.78,East,98,0.0,2.0,80,0.00,,,0.00,VWS V14.01,2013-12-02 13:58:00,
2013-12-02 08:00:00,37.8,32.2,29.78,East,98,0.0,2.0,80,0.00,,CLR,0.00,VWS V14.01,2013-12-02 14:00:00,
2013-12-02 08:01:00,37.8,32.2,29.78,East,98,0.0,0.0,80,0.00,,,0.00,VWS V14.01,2013-12-02 14:01:00,
2013-12-02 08:02:00,37.8,32.2,29.78,ESE,116,0.0,5.0,80,0.00,,,0.00,VWS V14.01,2013-12-02 14:02:00,
2013-12-02 08:03:00,37.8,32.2,29.78,East,83,0.0,5.0,80,0.00,,,0.00,VWS V14.01,2013-12-02 14:03:00,
2013-12-02 08:07:00,37.9,32.3,29.78,East,89,0.0,5.0,80,0.00,,,0.00,VWS V14.01,2013-12-02 14:07:00,
2013-12-02 08:08:00,38.1,32.5,29.78,East,89,0.0,5.0,80,0.00,,,0.00,VWS V14.01,2013-12-02 14:08:00,
2013-12-02 08:09:00,38.1,32.5,29.78,ENE,63,1.0,5.0,80,0.00,,,0.00,VWS V14.01,2013-12-02 14:09:00,
2013-12-02 08:12:00,38.2,32.3,29.78,ENE,69,0.0,5.0,79,0.00,,,0.00,VWS V14.01,2013-12-02 14:12:00,
2013-12-02 08:13:00,38.2,32.3,29.78,East,88,1.0,5.0,79,0.00,,,0.00,VWS V14.01,2013-12-02 14:13:00,
2013-12-02 08:14:00,38.2,32.3,29.78,East,88,0.0,5.0,79,0.00,,,0.00,VWS V14.01,2013-12-02 14:14:00,
2013-12-02 08:17:00,38.4,32.5,29.78,East,90,0.0,5.0,79,0.00,,,0.00,VWS V14.01,2013-12-02 14:17:00,
2013-12-02 08:18:00,38.4,32.5,29.78,East,92,2.0,5.0,79,0.00,,,0.00,VWS V14.01,2013-12-02 14:18:00,
2013-12-02 08:19:00,38.4,32.5,29.78,East,96,2.0,5.0,79,0.00,,,0.00,VWS V14.01,2013-12-02 14:19:00,
2013-12-02 08:22:00,38.5,32.6,29.78,East,94,0.0,5.0,79,0.00,,,0.00,VWS V14.01,2013-12-02 14:22:00,
2013-12-02 08:23:00,38.5,32.6,29.78,East,94,0.0,5.0,79,0.00,,,0.00,VWS V14.01,2013-12-02 14:23:00,
2013-12-02 08:24:00,38.5,32.6,29.78,East,94,0.0,5.0,79,0.00,,,0.00,VWS V14.01,2013-12-02 14:24:00,
2013-12-02 08:27:00,38.5,32.6,29.78,ESE,123,3.0,5.0,79,0.00,,,0.00,VWS V14.01,2013-12-02 14:27:00,
2013-12-02 08:28:00,38.5,32.6,29.78,ESE,121,2.0,5.0,79,0.00,,,0.00,VWS V14.01,2013-12-02 14:28:00,
2013-12-02 08:29:00,38.5,32.6,29.78,ESE,121,0.0,5.0,79,0.00,,,0.00,VWS V14.01,2013-12-02 14:29:00,
2013-12-02 08:30:00,38.7,32.8,29.77,ESE,122,0.0,5.0,79,0.00,,CLR,0.00,VWS V14.01,2013-12-02 14:30:00,
2013-12-02 08:33:00,38.7,32.8,29.77,SE,126,1.0,1.0,79,0.00,,,0.00,VWS V14.01,2013-12-02 14:33:00,
2013-12-02 08:34:00,38.7,32.8,29.77,SE,129,0.0,2.0,79,0.00,,,0.00,VWS V14.01,2013-12-02 14:34:00,
2013-12-02 08:35:00,38.8,32.9,29.77,SE,126,0.0,2.0,79,0.00,,,0.00,VWS V14.01,2013-12-02 14:35:00,
2013-12-02 08:38:00,39.0,33.0,29.77,East,96,0.0,5.0,79,0.00,,,0.00,VWS V14.01,2013-12-02 14:38:00,
2013-12-02 08:39:00,39.0,33.0,29.77,ESE,103,2.0,5.0,79,0.00,,,0.00,VWS V14.01,2013-12-02 14:39:00,
2013-12-02 08:40:00,39.0,33.0,29.77,ESE,102,0.0,5.0,79,0.00,,,0.00,VWS V14.01,2013-12-02 14:40:00,
2013-12-02 08:43:00,39.1,33.2,29.77,ESE,103,0.0,5.0,79,0.00,,,0.00,VWS V14.01,2013-12-02 14:43:00,
2013-12-02 08:44:00,39.2,33.2,29.77,East,96,0.0,5.0,79,0.00,,,0.00,VWS V14.01,2013-12-02 14:44:00,
2013-12-02 08:45:00,39.2,33.2,29.77,ESE,110,3.0,5.0,79,0.00,,,0.00,VWS V14.01,2013-12-02 14:45:00,
2013-12-02 08:48:00,39.4,33.4,29.77,ESE,111,3.0,5.0,79,0.00,,,0.00,VWS V14.01,2013-12-02 14:48:00,
2013-12-02 08:49:00,39.4,33.4,29.77,ESE,109,0.0,5.0,79,0.00,,,0.00,VWS V14.01,2013-12-02 14:49:00,
2013-12-02 08:50:00,39.5,33.5,29.77,ESE,109,0.0,5.0,79,0.00,,,0.00,VWS V14.01,2013-12-02 14:50:00,
2013-12-02 08:53:00,39.5,33.2,29.77,SE,137,7.0,7.0,78,0.00,,,0.00,VWS V14.01,2013-12-02 14:53:00,
2013-12-02 08:54:00,39.5,33.2,29.77,South,171,1.0,7.0,78,0.00,,,0.00,VWS V14.01,2013-12-02 14:54:00,
2013-12-02 08:55:00,39.5,33.2,29.77,South,169,0.0,7.0,78,0.00,,,0.00,VWS V14.01,2013-12-02 14:55:00,
2013-12-02 08:58:00,39.5,33.2,29.77,SE,133,2.0,7.0,78,0.00,,,0.00,VWS V14.01,2013-12-02 14:58:00,
2013-12-02 08:59:00,39.5,33.2,29.77,ESE,123,7.0,8.0,78,0.00,,,0.00,VWS V14.01,2013-12-02 14:59:00,
2013-12-02 09:00:00,39.5,33.2,29.77,SE,125,5.0,8.0,78,0.00,,,0.00,VWS V14.01,2013-12-02 15:00:00,
2013-12-02 09:03:00,39.5,33.2,29.77,ESE,109,0.0,7.0,78,0.00,,,0.00,VWS V14.01,2013-12-02 15:03:00,
2013-12-02 09:05:00,39.7,33.7,29.77,ESE,110,3.0,7.0,79,0.00,,,0.00,VWS V14.01,2013-12-02 15:05:00,
2013-12-02 09:06:00,39.7,33.7,29.77,SE,130,5.0,7.0,79,0.00,,,0.00,VWS V14.01,2013-12-02 15:06:00,
2013-12-02 09:08:00,39.8,33.8,29.77,SE,130,0.0,7.0,79,0.00,,,0.00,VWS V14.01,2013-12-02 15:08:00,
2013-12-02 09:10:00,39.8,33.8,29.77,East,99,0.0,7.0,79,0.00,,,0.00,VWS V14.01,2013-12-02 15:10:00,
2013-12-02 09:11:00,39.8,33.8,29.77,East,99,0.0,7.0,79,0.00,,,0.00,VWS V14.01,2013-12-02 15:11:00,
2013-12-02 09:14:00,40.1,34.1,29.77,ESE,115,2.0,7.0,79,0.00,,,0.00,VWS V14.01,2013-12-02 15:14:00,
2013-12-02 09:15:00,40.1,34.1,29.76,ESE,115,0.0,7.0,79,0.00,,,0.00,VWS V14.01,2013-12-02 15:15:00,
2013-12-02 09:16:00,40.2,33.9,29.76,ESE,115,0.0,7.0,78,0.00,,,0.00,VWS V14.01,2013-12-02 15:16:00,
2013-12-02 09:19:00,40.4,34.1,29.76,ESE,115,0.0,7.0,78,0.00,,,0.00,VWS V14.01,2013-12-02 15:19:00,
2013-12-02 09:20:00,40.5,34.2,29.76,SSE,167,2.0,7.0,78,0.00,,,0.00,VWS V14.01,2013-12-02 15:20:00,
2013-12-02 09:30:00,40.8,34.5,29.76,SSE,151,0.0,7.0,78,0.00,,CLR,0.00,VWS V14.01,2013-12-02 15:30:00,
2013-12-02 09:56:00,42.2,35.5,29.76,ESE,112,0.0,4.0,77,0.00,,,0.00,VWS V14.01,2013-12-02 15:56:00,
2013-12-02 10:00:00,42.5,35.5,29.76,ESE,111,0.0,4.0,76,0.00,,,0.00,VWS V14.01,2013-12-02 16:00:00,
2013-12-02 10:01:00,42.5,35.5,29.76,ESE,111,0.0,0.0,76,0.00,,BKN110,0.00,VWS V14.01,2013-12-02 16:01:00,
2013-12-02 10:06:00,42.8,35.8,29.76,ESE,109,0.0,0.0,76,0.00,,BKN110,0.00,VWS V14.01,2013-12-02 16:06:00,
2013-12-02 10:07:00,42.8,35.8,29.76,ESE,109,0.0,0.0,76,0.00,,BKN110,0.00,VWS V14.01,2013-12-02 16:07:00,
2013-12-02 10:11:00,42.8,35.8,29.76,SE,125,0.0,4.0,76,0.00,,BKN110,0.00,VWS V14.01,2013-12-02 16:11:00,
2013-12-02 10:12:00,43.0,36.0,29.76,SE,125,0.0,4.0,76,0.00,,BKN110,0.00,VWS V14.01,2013-12-02 16:12:00,
2013-12-02 10:16:00,43.1,36.1,29.76,East,86,0.0,4.0,76,0.00,,BKN110,0.00,VWS V14.01,2013-12-02 16:16:00,
2013-12-02 10:17:00,43.2,36.2,29.76,East,86,0.0,4.0,76,0.00,,BKN110,0.00,VWS V14.01,2013-12-02 16:17:00,
2013-12-02 10:18:00,43.2,36.2,29.76,East,86,0.0,4.0,76,0.00,,BKN110,0.00,VWS V14.01,2013-12-02 16:18:00,
2013-12-02 10:21:00,43.4,36.3,29.76,East,86,0.0,4.0,76,0.00,,BKN110,0.00,VWS V14.01,2013-12-02 16:21:00,
2013-12-02 10:22:00,43.4,36.0,29.76,East,86,0.0,4.0,75,0.00,,BKN110,0.00,VWS V14.01,2013-12-02 16:22:00,
2013-12-02 10:23:00,43.4,36.0,29.76,East,88,0.0,4.0,75,0.00,,BKN110,0.00,VWS V14.01,2013-12-02 16:23:00,
2013-12-02 10:26:00,43.5,36.5,29.76,SE,136,0.0,4.0,76,0.00,,BKN110,0.00,VWS V14.01,2013-12-02 16:26:00,
2013-12-02 10:27:00,43.7,36.6,29.76,SE,136,0.0,4.0,76,0.00,,BKN110,0.00,VWS V14.01,2013-12-02 16:27:00,
2013-12-02 10:28:00,43.7,36.6,29.76,SE,136,0.0,4.0,76,0.00,,BKN110,0.00,VWS V14.01,2013-12-02 16:28:00,
2013-12-02 10:30:00,43.8,36.4,29.76,SE,127,0.0,4.0,75,0.00,,CLR,0.00,VWS V14.01,2013-12-02 16:30:00,
2013-12-02 10:31:00,44.0,36.6,29.76,SE,126,0.0,0.0,75,0.00,,BKN110,0.00,VWS V14.01,2013-12-02 16:31:00,
2013-12-02 10:32:00,44.0,36.9,29.76,SE,126,0.0,0.0,76,0.00,,BKN110,0.00,VWS V14.01,2013-12-02 16:32:00,
2013-12-02 10:33:00,44.0,36.6,29.76,SE,132,0.0,0.0,75,0.00,,BKN110,0.00,VWS V14.01,2013-12-02 16:33:00,
2013-12-02 10:36:00,44.1,36.7,29.76,SE,133,0.0,0.0,75,0.00,,BKN110,0.00,VWS V14.01,2013-12-02 16:36:00,
2013-12-02 10:37:00,44.1,36.7,29.76,SE,133,0.0,0.0,75,0.00,,BKN110,0.00,VWS V14.01,2013-12-02 16:37:00,
2013-12-02 10:38:00,44.1,36.7,29.76,SE,133,0.0,0.0,75,0.00,,BKN110,0.00,VWS V14.01,2013-12-02 16:38:00,
2013-12-02 10:41:00,44.2,36.8,29.76,SE,133,0.0,0.0,75,0.00,,BKN110,0.00,VWS V14.01,2013-12-02 16:41:00,
2013-12-02 10:42:00,44.4,37.0,29.76,SE,133,0.0,0.0,75,0.00,,BKN110,0.00,VWS V14.01,2013-12-02 16:42:00,
2013-12-02 10:43:00,44.4,37.0,29.76,SE,133,0.0,1.0,75,0.00,,BKN110,0.00,VWS V14.01,2013-12-02 16:43:00,
2013-12-02 10:44:00,44.4,37.0,29.76,SE,133,0.0,1.0,75,0.00,,BKN110,0.00,VWS V14.01,2013-12-02 16:44:00,
2013-12-02 10:46:00,44.5,37.1,29.75,SE,132,0.0,1.0,75,0.00,,BKN100,0.00,VWS V14.01,2013-12-02 16:46:00,
2013-12-02 10:47:00,44.5,37.1,29.75,SE,132,0.0,1.0,75,0.00,,BKN100,0.00,VWS V14.01,2013-12-02 16:47:00,
2013-12-02 10:48:00,44.7,37.3,29.75,SE,133,0.0,1.0,75,0.00,,BKN100,0.00,VWS V14.01,2013-12-02 16:48:00,
2013-12-02 10:49:00,44.7,36.9,29.75,SE,133,0.0,1.0,74,0.00,,BKN100,0.00,VWS V14.01,2013-12-02 16:49:00,
2013-12-02 10:51:00,44.8,37.4,29.75,SE,132,0.0,1.0,75,0.00,,BKN100,0.00,VWS V14.01,2013-12-02 16:51:00,
2013-12-02 10:52:00,45.0,37.6,29.75,SE,132,0.0,1.0,75,0.00,,BKN100,0.00,VWS V14.01,2013-12-02 16:52:00,
2013-12-02 10:53:00,45.0,37.6,29.75,SE,132,0.0,1.0,75,0.00,,BKN100,0.00,VWS V14.01,2013-12-02 16:53:00,
2013-12-02 10:54:00,45.1,37.3,29.75,SE,132,0.0,1.0,74,0.00,,BKN100,0.00,VWS V14.01,2013-12-02 16:54:00,
2013-12-02 10:56:00,45.3,37.2,29.75,SE,132,0.0,1.0,73,0.00,,BKN100,0.00,VWS V14.01,2013-12-02 16:56:00,
2013-12-02 10:57:00,45.3,37.2,29.75,SE,132,0.0,1.0,73,0.00,,BKN100,0.00,VWS V14.01,2013-12-02 16:57:00,
2013-12-02 10:58:00,45.3,37.2,29.75,SE,132,0.0,1.0,73,0.00,,BKN100,0.00,VWS V14.01,2013-12-02 16:58:00,
2013-12-02 10:59:00,45.3,37.2,29.74,SE,130,2.0,3.0,73,0.00,,BKN100,0.00,VWS V14.01,2013-12-02 16:59:00,
2013-12-02 11:00:00,45.3,37.2,29.74,SE,130,3.0,3.0,73,0.00,,CLR,0.00,VWS V14.01,2013-12-02 17:00:00,
2013-12-02 11:01:00,45.3,37.2,29.74,SE,130,0.0,3.0,73,0.00,,BKN100,0.00,VWS V14.01,2013-12-02 17:01:00,
2013-12-02 11:02:00,45.3,37.2,29.74,SE,130,0.0,3.0,73,0.00,,BKN100,0.00,VWS V14.01,2013-12-02 17:02:00,
2013-12-02 11:03:00,45.3,37.2,29.74,SE,130,0.0,3.0,73,0.00,,BKN100,0.00,VWS V14.01,2013-12-02 17:03:00,
2013-12-02 11:04:00,45.3,37.2,29.74,SE,129,0.0,3.0,73,0.00,,BKN100,0.00,VWS V14.01,2013-12-02 17:04:00,
2013-12-02 11:06:00,45.4,37.6,29.74,SE,130,0.0,3.0,74,0.00,,BKN100,0.00,VWS V14.01,2013-12-02 17:06:00,
2013-12-02 11:07:00,45.4,37.6,29.74,SE,130,0.0,3.0,74,0.00,,BKN100,0.00,VWS V14.01,2013-12-02 17:07:00,
2013-12-02 11:08:00,45.4,37.6,29.74,SE,130,0.0,3.0,74,0.00,,BKN100,0.00,VWS V14.01,2013-12-02 17:08:00,
2013-12-02 11:09:00,45.4,37.6,29.74,SE,131,0.0,3.0,74,0.00,,BKN100,0.00,VWS V14.01,2013-12-02 17:09:00,
2013-12-02 11:10:00,45.4,37.6,29.74,SE,131,0.0,3.0,74,0.00,,BKN100,0.00,VWS V14.01,2013-12-02 17:10:00,
2013-12-02 11:12:00,45.6,37.8,29.74,SE,131,1.0,3.0,74,0.00,,BKN100,0.00,VWS V14.01,2013-12-02 17:12:00,
2013-12-02 11:13:00,45.6,37.5,29.74,SE,131,0.0,3.0,73,0.00,,BKN100,0.00,VWS V14.01,2013-12-02 17:13:00,
2013-12-02 11:14:00,45.6,37.5,29.74,SE,131,0.0,3.0,73,0.00,,BKN100,0.00,VWS V14.01,2013-12-02 17:14:00,
2013-12-02 11:15:00,45.7,37.5,29.74,SE,131,0.0,3.0,73,0.00,,BKN100,0.00,VWS V14.01,2013-12-02 17:15:00,
2013-12-02 11:17:00,45.7,37.9,29.74,SE,131,0.0,3.0,74,0.00,,BKN100,0.00,VWS V14.01,2013-12-02 17:17:00,
2013-12-02 11:18:00,45.7,37.9,29.74,SE,131,0.0,3.0,74,0.00,,BKN100,0.00,VWS V14.01,2013-12-02 17:18:00,
2013-12-02 11:20:00,45.7,37.5,29.74,SE,134,0.0,4.0,73,0.00,,BKN100,0.00,VWS V14.01,2013-12-02 17:20:00,
2013-12-02 11:22:00,45.9,38.1,29.74,SE,135,0.0,4.0,74,0.00,,BKN100,0.00,VWS V14.01,2013-12-02 17:22:00,
2013-12-02 11:23:00,45.9,37.8,29.74,SE,135,0.0,4.0,73,0.00,,BKN100,0.00,VWS V14.01,2013-12-02 17:23:00,
2013-12-02 11:25:00,46.0,37.8,29.74,ESE,118,0.0,4.0,73,0.00,,BKN100,0.00,VWS V14.01,2013-12-02 17:25:00,
2013-12-02 11:27:00,46.0,37.8,29.74,ESE,117,0.0,4.0,73,0.00,,BKN100,0.00,VWS V14.01,2013-12-02 17:27:00,
2013-12-02 11:28:00,46.1,37.9,29.74,ESE,116,0.0,4.0,73,0.00,,BKN100,0.00,VWS V14.01,2013-12-02 17:28:00,
2013-12-02 11:30:00,46.1,37.9,29.72,ESE,113,0.0,0.0,73,0.00,,BKN100,0.00,VWS V14.01,2013-12-02 17:30:00,
2013-12-02 11:31:00,46.1,37.9,29.72,ESE,113,0.0,0.0,73,0.00,,BKN100,0.00,VWS V14.01,2013-12-02 17:31:00,
2013-12-02 11:32:00,46.3,38.1,29.72,ESE,113,0.0,0.0,73,0.00,,BKN100,0.00,VWS V14.01,2013-12-02 17:32:00,
2013-12-02 11:34:00,46.4,38.2,29.72,East,96,0.0,0.0,73,0.00,,BKN100,0.00,VWS V14.01,2013-12-02 17:34:00,
2013-12-02 11:35:00,46.6,38.4,29.72,ESE,109,0.0,0.0,73,0.00,,BKN100,0.00,VWS V14.01,2013-12-02 17:35:00,
2013-12-02 11:36:00,46.6,38.4,29.72,East,86,3.0,3.0,73,0.00,,BKN100,0.00,VWS V14.01,2013-12-02 17:36:00,
2013-12-02 11:37:00,46.6,38.4,29.72,East,86,0.0,3.0,73,0.00,,BKN100,0.00,VWS V14.01,2013-12-02 17:37:00,
2013-12-02 11:38:00,46.7,38.5,29.72,East,86,0.0,3.0,73,0.00,,BKN100,0.00,VWS V14.01,2013-12-02 17:38:00,
2013-12-02 11:39:00,46.7,38.5,29.72,East,86,0.0,3.0,73,0.00,,BKN100,0.00,VWS V14.01,2013-12-02 17:39:00,
2013-12-02 11:40:00,46.9,38.7,29.72,ENE,70,0.0,3.0,73,0.00,,BKN100,0.00,VWS V14.01,2013-12-02 17:40:00,
2013-12-02 11:41:00,46.9,38.7,29.72,ESE,114,4.0,5.0,73,0.00,,BKN100,0.00,VWS V14.01,2013-12-02 17:41:00,
2013-12-02 11:42:00,46.9,38.7,29.72,ESE,123,2.0,5.0,73,0.00,,BKN100,0.00,VWS V14.01,2013-12-02 17:42:00,
2013-12-02 11:43:00,47.0,38.8,29.72,SE,125,4.0,5.0,73,0.00,,BKN100,0.00,VWS V14.01,2013-12-02 17:43:00,
2013-12-02 11:44:00,47.0,38.8,29.72,SE,126,1.0,5.0,73,0.00,,BKN100,0.00,VWS V14.01,2013-12-02 17:44:00,
2013-12-02 11:46:00,47.0,38.8,29.71,ESE,119,0.0,5.0,73,0.00,,SCT049,0.00,VWS V14.01,2013-12-02 17:46:00,
2013-12-02 11:47:00,47.0,38.8,29.71,ESE,119,0.0,5.0,73,0.00,,SCT049,0.00,VWS V14.01,2013-12-02 17:47:00,
2013-12-02 11:48:00,47.0,38.8,29.71,ESE,122,0.0,5.0,73,0.00,,SCT049,0.00,VWS V14.01,2013-12-02 17:48:00,
2013-12-02 11:49:00,47.2,39.0,29.71,ESE,111,0.0,5.0,73,0.00,,SCT049,0.00,VWS V14.01,2013-12-02 17:49:00,
2013-12-02 11:51:00,47.2,39.0,29.71,SE,135,3.0,5.0,73,0.00,,SCT049,0.00,VWS V14.01,2013-12-02 17:51:00,
2013-12-02 11:52:00,47.3,39.1,29.71,SE,144,5.0,5.0,73,0.00,,SCT049,0.00,VWS V14.01,2013-12-02 17:52:00,
2013-12-02 11:53:00,47.3,39.1,29.71,SE,139,4.0,5.0,73,0.00,,SCT049,0.00,VWS V14.01,2013-12-02 17:53:00,
2013-12-02 11:55:00,47.3,39.1,29.71,ESE,119,3.0,5.0,73,0.00,,SCT049,0.00,VWS V14.01,2013-12-02 17:55:00,
2013-12-02 11:56:00,47.3,39.1,29.71,SE,137,6.0,7.0,73,0.00,,SCT049,0.00,VWS V14.01,2013-12-02 17:56:00,
2013-12-02 11:57:00,47.3,39.1,29.71,SE,131,4.0,7.0,73,0.00,,SCT049,0.00,VWS V14.01,2013-12-02 17:57:00,
2013-12-02 11:58:00,47.3,39.1,29.71,SE,130,2.0,7.0,73,0.00,,SCT049,0.00,VWS V14.01,2013-12-02 17:58:00,
2013-12-02 12:00:00,47.3,39.1,29.70,SE,130,0.0,7.0,73,0.00,,SCT049,0.00,VWS V14.01,2013-12-02 18:00:00,
2013-12-02 12:01:00,47.5,39.3,29.70,SE,134,2.0,5.0,73,0.00,,BKN049,0.00,VWS V14.01,2013-12-02 18:01:00,
2013-12-02 12:02:00,47.5,39.3,29.70,SE,134,0.0,5.0,73,0.00,,BKN049,0.00,VWS V14.01,2013-12-02 18:02:00,
2013-12-02 12:03:00,47.5,39.3,29.70,SE,135,0.0,5.0,73,0.00,,BKN049,0.00,VWS V14.01,2013-12-02 18:03:00,
2013-12-02 12:04:00,47.5,39.3,29.70,SE,146,7.0,7.0,73,0.00,,BKN049,0.00,VWS V14.01,2013-12-02 18:04:00,
2013-12-02 12:05:00,47.5,39.3,29.70,ESE,123,2.0,7.0,73,0.00,,BKN049,0.00,VWS V14.01,2013-12-02 18:05:00,
2013-12-02 12:07:00,47.5,39.3,29.70,SE,132,4.0,9.0,73,0.00,,BKN049,0.00,VWS V14.01,2013-12-02 18:07:00,
2013-12-02 12:08:00,47.5,39.3,29.70,SE,135,6.0,9.0,73,0.00,,BKN049,0.00,VWS V14.01,2013-12-02 18:08:00,
2013-12-02 12:09:00,47.5,39.3,29.70,SE,140,0.0,9.0,73,0.00,,BKN049,0.00,VWS V14.01,2013-12-02 18:09:00,
2013-12-02 12:10:00,47.5,39.3,29.70,SE,125,2.0,9.0,73,0.00,,BKN049,0.00,VWS V14.01,2013-12-02 18:10:00,
2013-12-02 12:13:00,47.6,39.4,29.70,SE,132,2.0,9.0,73,0.00,,BKN049,0.00,VWS V14.01,2013-12-02 18:13:00,
2013-12-02 12:14:00,47.8,39.6,29.70,SE,137,0.0,9.0,73,0.00,,BKN049,0.00,VWS V14.01,2013-12-02 18:14:00,
2013-12-02 12:15:00,47.9,39.7,29.69,SE,138,0.0,9.0,73,0.00,,BKN049,0.00,VWS V14.01,2013-12-02 18:15:00,
2013-12-02 12:18:00,48.1,39.5,29.69,ENE,77,0.0,9.0,72,0.00,,BKN049,0.00,VWS V14.01,2013-12-02 18:18:00,
2013-12-02 12:19:00,48.2,39.6,29.69,SSE,157,2.0,9.0,72,0.00,,BKN049,0.00,VWS V14.01,2013-12-02 18:19:00,
2013-12-02 12:20:00,48.2,39.6,29.69,SSE,147,0.0,9.0,72,0.00,,BKN049,0.00,VWS V14.01,2013-12-02 18:20:00,
2013-12-02 12:23:00,48.4,39.8,29.69,ESE,123,0.0,9.0,72,0.00,,BKN049,0.00,VWS V14.01,2013-12-02 18:23:00,
2013-12-02 12:24:00,48.4,39.8,29.69,ESE,123,0.0,9.0,72,0.00,,BKN049,0.00,VWS V14.01,2013-12-02 18:24:00,
2013-12-02 12:25:00,48.4,39.8,29.69,ESE,121,0.0,9.0,72,0.00,,BKN049,0.00,VWS V14.01,2013-12-02 18:25:00,
2013-12-02 12:28:00,48.5,40.2,29.69,SE,125,0.0,9.0,73,0.00,,BKN049,0.00,VWS V14.01,2013-12-02 18:28:00,
2013-12-02 12:29:00,48.5,39.9,29.69,SE,127,0.0,9.0,72,0.00,,BKN049,0.00,VWS V14.01,2013-12-02 18:29:00,
2013-12-02 12:30:00,48.7,40.1,29.69,SE,129,2.0,4.0,72,0.00,,BKN049,0.00,VWS V14.01,2013-12-02 18:30:00,
2013-12-02 12:33:00,48.7,40.1,29.69,SE,128,5.0,6.0,72,0.00,,BKN049,0.00,VWS V14.01,2013-12-02 18:33:00,
2013-12-02 12:34:00,48.7,40.1,29.69,SE,144,4.0,6.0,72,0.00,,BKN049,0.00,VWS V14.01,2013-12-02 18:34:00,
2013-12-02 12:35:00,48.7,40.1,29.69,SE,144,0.0,6.0,72,0.00,,BKN049,0.00,VWS V14.01,2013-12-02 18:35:00,
2013-12-02 12:36:00,48.7,40.1,29.69,East,100,6.0,6.0,72,0.00,,BKN049,0.00,VWS V14.01,2013-12-02 18:36:00,
2013-12-02 12:38:00,48.7,40.1,29.69,ESE,119,2.0,6.0,72,0.00,,BKN049,0.00,VWS V14.01,2013-12-02 18:38:00,
2013-12-02 12:39:00,48.7,40.1,29.69,SE,132,5.0,6.0,72,0.00,,BKN049,0.00,VWS V14.01,2013-12-02 18:39:00,
2013-12-02 12:40:00,48.7,40.1,29.69,SE,142,3.0,6.0,72,0.00,,BKN049,0.00,VWS V14.01,2013-12-02 18:40:00,
2013-12-02 12:41:00,48.7,40.1,29.69,SE,142,0.0,6.0,72,0.00,,BKN049,0.00,VWS V14.01,2013-12-02 18:41:00,
2013-12-02 12:43:00,48.8,40.2,29.69,SE,129,0.0,6.0,72,0.00,,BKN049,0.00,VWS V14.01,2013-12-02 18:43:00,
2013-12-02 12:44:00,48.8,40.2,29.68,SE,125,5.0,10.0,72,0.00,,BKN049,0.00,VWS V14.01,2013-12-02 18:44:00,
2013-12-02 12:45:00,48.8,40.2,29.68,SE,125,4.0,10.0,72,0.00,,BKN049,0.00,VWS V14.01,2013-12-02 18:45:00,
2013-12-02 12:46:00,48.7,40.1,29.68,SE,138,4.0,10.0,72,0.00,,SCT065,0.00,VWS V14.01,2013-12-02 18:46:00,
2013-12-02 12:48:00,48.7,40.1,29.68,SE,132,0.0,10.0,72,0.00,,SCT065,0.00,VWS V14.01,2013-12-02 18:48:00,
2013-12-02 12:49:00,48.7,40.1,29.68,SE,136,0.0,10.0,72,0.00,,SCT065,0.00,VWS V14.01,2013-12-02 18:49:00,
2013-12-02 12:50:00,48.7,40.1,29.68,ESE,118,2.0,10.0,72,0.00,,SCT065,0.00,VWS V14.01,2013-12-02 18:50:00,
2013-12-02 12:51:00,48.7,40.5,29.68,East,99,0.0,10.0,73,0.00,,SCT065,0.00,VWS V14.01,2013-12-02 18:51:00,
2013-12-02 12:54:00,49.0,40.7,29.68,East,91,0.0,10.0,73,0.00,,SCT065,0.00,VWS V14.01,2013-12-02 18:54:00,
2013-12-02 12:55:00,49.1,40.8,29.68,East,91,0.0,10.0,73,0.00,,SCT065,0.00,VWS V14.01,2013-12-02 18:55:00,
2013-12-02 12:56:00,49.3,40.7,29.68,South,172,2.0,10.0,72,0.00,,SCT065,0.00,VWS V14.01,2013-12-02 18:56:00,
2013-12-02 12:57:00,49.4,40.8,29.68,SE,136,0.0,10.0,72,0.00,,SCT065,0.00,VWS V14.01,2013-12-02 18:57:00,
2013-12-02 12:59:00,49.5,40.9,29.68,ESE,105,0.0,10.0,72,0.00,,SCT065,0.00,VWS V14.01,2013-12-02 18:59:00,
2013-12-02 13:00:00,49.5,40.9,29.68,ESE,105,0.0,10.0,72,0.00,,SCT065,0.00,VWS V14.01,2013-12-02 19:00:00,
2013-12-02 13:01:00,49.5,40.9,29.68,East,98,4.0,4.0,72,0.00,,BKN049,0.00,VWS V14.01,2013-12-02 19:01:00,
2013-12-02 13:02:00,49.5,40.5,29.68,SE,130,3.0,9.0,71,0.00,,BKN049,0.00,VWS V14.01,2013-12-02 19:02:00,
2013-12-02 13:04:00,49.4,40.4,29.68,East,101,6.0,9.0,71,0.00,,BKN049,0.00,VWS V14.01,2013-12-02 19:04:00,
2013-12-02 13:05:00,49.4,40.4,29.68,ESE,113,3.0,9.0,71,0.00,,BKN049,0.00,VWS V14.01,2013-12-02 19:05:00,
2013-12-02 13:06:00,49.4,40.4,29.68,SE,128,2.0,9.0,71,0.00,,BKN049,0.00,VWS V14.01,2013-12-02 19:06:00,
2013-12-02 13:07:00,49.4,40.4,29.68,ESE,113,3.0,9.0,71,0.00,,BKN049,0.00,VWS V14.01,2013-12-02 19:07:00,
2013-12-02 13:08:00,49.4,40.8,29.68,ESE,121,4.0,9.0,72,0.00,,BKN049,0.00,VWS V14.01,2013-12-02 19:08:00,
2013-12-02 13:09:00,49.4,40.8,29.68,SE,126,3.0,9.0,72,0.00,,BKN049,0.00,VWS V14.01,2013-12-02 19:09:00,
2013-12-02 13:10:00,49.4,40.8,29.68,SE,128,2.0,9.0,72,0.00,,BKN049,0.00,VWS V14.01,2013-12-02 19:10:00,
2013-12-02 13:11:00,49.4,40.8,29.68,SE,128,0.0,9.0,72,0.00,,BKN049,0.00,VWS V14.01,2013-12-02 19:11:00,
2013-12-02 13:12:00,49.5,40.9,29.68,South,186,4.0,9.0,72,0.00,,BKN049,0.00,VWS V14.01,2013-12-02 19:12:00,
2013-12-02 13:13:00,49.5,40.5,29.68,SE,126,2.0,9.0,71,0.00,,BKN049,0.00,VWS V14.01,2013-12-02 19:13:00,
2013-12-02 13:14:00,49.5,40.9,29.67,East,92,2.0,9.0,72,0.00,,BKN049,0.00,VWS V14.01,2013-12-02 19:14:00,
2013-12-02 13:15:00,49.5,40.5,29.67,ESE,109,2.0,9.0,71,0.00,,BKN049,0.00,VWS V14.01,2013-12-02 19:15:00,
2013-12-02 13:16:00,49.5,40.5,29.67,SE,125,3.0,9.0,71,0.00,,BKN049,0.00,VWS V14.01,2013-12-02 19:16:00,
2013-12-02 13:17:00,49.5,40.5,29.67,ESE,115,0.0,9.0,71,0.00,,BKN049,0.00,VWS V14.01,2013-12-02 19:17:00,
2013-12-02 13:19:00,49.5,40.9,29.67,ESE,107,0.0,9.0,72,0.00,,BKN049,0.00,VWS V14.01,2013-12-02 19:19:00,
2013-12-02 13:20:00,49.5,40.5,29.67,ESE,107,0.0,9.0,71,0.00,,BKN049,0.00,VWS V14.01,2013-12-02 19:20:00,
2013-12-02 13:21:00,49.7,40.7,29.67,ESE,107,0.0,9.0,71,0.00,,BKN049,0.00,VWS V14.01,2013-12-02 19:21:00,
2013-12-02 13:22:00,49.7,40.7,29.67,SE,133,3.0,9.0,71,0.00,,BKN049,0.00,VWS V14.01,2013-12-02 19:22:00,
2013-12-02 13:24:00,49.7,40.7,29.67,ESE,103,0.0,9.0,71,0.00,,BKN049,0.00,VWS V14.01,2013-12-02 19:24:00,
2013-12-02 13:25:00,49.8,40.8,29.67,ESE,108,0.0,9.0,71,0.00,,BKN049,0.00,VWS V14.01,2013-12-02 19:25:00,
2013-12-02 13:26:00,49.8,40.8,29.67,SE,132,0.0,9.0,71,0.00,,BKN049,0.00,VWS V14.01,2013-12-02 19:26:00,
2013-12-02 13:27:00,49.8,40.8,29.67,SE,129,0.0,9.0,71,0.00,,BKN049,0.00,VWS V14.01,2013-12-02 19:27:00,
2013-12-02 13:29:00,49.8,40.8,29.67,ESE,123,0.0,9.0,71,0.00,,BKN049,0.00,VWS V14.01,2013-12-02 19:29:00,
2013-12-02 13:30:00,50.0,41.0,29.67,ESE,109,6.0,9.0,71,0.00,,BKN049,0.00,VWS V14.01,2013-12-02 19:30:00,
2013-12-02 13:31:00,50.0,41.0,29.67,ESE,119,6.0,10.0,71,0.00,,BKN049,0.00,VWS V14.01,2013-12-02 19:31:00,
2013-12-02 13:32:00,50.0,41.0,29.67,SSE,150,0.0,10.0,71,0.00,,BKN049,0.00,VWS V14.01,2013-12-02 19:32:00,
2013-12-02 13:33:00,50.0,41.0,29.67,SSE,148,0.0,10.0,71,0.00,,BKN049,0.00,VWS V14.01,2013-12-02 19:33:00,
2013-12-02 13:34:00,50.0,41.0,29.67,SSE,148,0.0,10.0,71,0.00,,BKN049,0.00,VWS V14.01,2013-12-02 19:34:00,
2013-12-02 13:35:00,50.0,41.3,29.67,ESE,118,2.0,10.0,72,0.00,,BKN049,0.00,VWS V14.01,2013-12-02 19:35:00,
2013-12-02 13:36:00,50.1,41.4,29.67,ESE,118,0.0,10.0,72,0.00,,BKN049,0.00,VWS V14.01,2013-12-02 19:36:00,
2013-12-02 13:37:00,50.1,41.4,29.67,ESE,118,0.0,10.0,72,0.00,,BKN049,0.00,VWS V14.01,2013-12-02 19:37:00,
2013-12-02 13:38:00,50.3,41.6,29.67,ESE,117,0.0,10.0,72,0.00,,BKN049,0.00,VWS V14.01,2013-12-02 19:38:00,
2013-12-02 13:40:00,50.3,41.3,29.67,ESE,117,0.0,10.0,71,0.00,,BKN049,0.00,VWS V14.01,2013-12-02 19:40:00,
2013-12-02 13:41:00,50.3,41.3,29.67,ESE,117,0.0,10.0,71,0.00,,BKN049,0.00,VWS V14.01,2013-12-02 19:41:00,
2013-12-02 13:42:00,50.3,41.3,29.67,ESE,117,0.0,10.0,71,0.00,,BKN049,0.00,VWS V14.01,2013-12-02 19:42:00,
2013-12-02 13:43:00,50.3,41.3,29.67,ESE,117,0.0,10.0,71,0.00,,BKN049,0.00,VWS V14.01,2013-12-02 19:43:00,
2013-12-02 13:44:00,50.4,41.4,29.67,ESE,117,0.0,10.0,71,0.00,,BKN049,0.00,VWS V14.01,2013-12-02 19:44:00,
2013-12-02 13:45:00,50.4,41.4,29.67,ESE,117,0.0,10.0,71,0.00,,BKN049,0.00,VWS V14.01,2013-12-02 19:45:00,
2013-12-02 13:46:00,50.4,41.4,29.67,ESE,123,0.0,10.0,71,0.00,,SCT039,0.00,VWS V14.01,2013-12-02 19:46:00,
2013-12-02 13:47:00,50.4,41.4,29.67,ESE,113,6.0,10.0,71,0.00,,SCT039,0.00,VWS V14.01,2013-12-02 19:47:00,
2013-12-02 13:48:00,50.6,41.6,29.67,SE,124,3.0,10.0,71,0.00,,SCT039,0.00,VWS V14.01,2013-12-02 19:48:00,
2013-12-02 13:49:00,50.6,41.6,29.67,SE,124,0.0,10.0,71,0.00,,SCT039,0.00,VWS V14.01,2013-12-02 19:49:00,
2013-12-02 13:50:00,50.6,41.6,29.67,SE,124,4.0,10.0,71,0.00,,SCT039,0.00,VWS V14.01,2013-12-02 19:50:00,
2013-12-02 13:52:00,50.6,41.6,29.67,SE,125,0.0,10.0,71,0.00,,SCT039,0.00,VWS V14.01,2013-12-02 19:52:00,
2013-12-02 13:54:00,50.6,41.6,29.67,SE,129,5.0,10.0,71,0.00,,SCT039,0.00,VWS V14.01,2013-12-02 19:54:00,
2013-12-02 13:55:00,50.6,41.6,29.67,ESE,121,3.0,10.0,71,0.00,,SCT039,0.00,VWS V14.01,2013-12-02 19:55:00,
2013-12-02 13:57:00,50.6,41.6,29.67,South,169,3.0,10.0,71,0.00,,SCT039,0.00,VWS V14.01,2013-12-02 19:57:00,
2013-12-02 13:59:00,50.6,41.9,29.67,SE,137,0.0,10.0,72,0.00,,SCT039,0.00,VWS V14.01,2013-12-02 19:59:00,
2013-12-02 14:00:00,50.6,41.9,29.67,SE,137,0.0,10.0,72,0.00,,SCT039,0.00,VWS V14.01,2013-12-02 20:00:00,
2013-12-02 14:03:00,50.6,41.6,29.67,ESE,116,0.0,5.0,71,0.00,,BKN041,0.00,VWS V14.01,2013-12-02 20:03:00,
2013-12-02 14:04:00,50.7,41.7,29.67,ESE,116,0.0,5.0,71,0.00,,BKN041,0.00,VWS V14.01,2013-12-02 20:04:00,
2013-12-02 14:05:00,50.7,41.7,29.67,ESE,116,0.0,5.0,71,0.00,,BKN041,0.00,VWS V14.01,2013-12-02 20:05:00,
2013-12-02 14:08:00,50.7,42.0,29.67,SE,125,0.0,5.0,72,0.00,,BKN041,0.00,VWS V14.01,2013-12-02 20:08:00,
2013-12-02 14:09:00,50.9,42.2,29.67,SE,125,0.0,5.0,72,0.00,,BKN041,0.00,VWS V14.01,2013-12-02 20:09:00,
2013-12-02 14:10:00,50.9,42.2,29.67,SE,125,0.0,5.0,72,0.00,,BKN041,0.00,VWS V14.01,2013-12-02 20:10:00,
2013-12-02 14:13:00,51.0,42.3,29.67,SE,129,1.0,5.0,72,0.00,,BKN041,0.00,VWS V14.01,2013-12-02 20:13:00,
2013-12-02 14:14:00,51.0,42.3,29.66,SE,129,0.0,5.0,72,0.00,,BKN041,0.00,VWS V14.01,2013-12-02 20:14:00,
2013-12-02 14:15:00,51.0,42.3,29.66,SE,129,0.0,5.0,72,0.00,,BKN041,0.00,VWS V14.01,2013-12-02 20:15:00,
2013-12-02 14:16:00,51.0,42.3,29.66,SE,132,0.0,5.0,72,0.00,,BKN041,0.00,VWS V14.01,2013-12-02 20:16:00,
2013-12-02 14:18:00,51.2,42.5,29.66,ESE,123,0.0,5.0,72,0.00,,BKN041,0.00,VWS V14.01,2013-12-02 20:18:00,
2013-12-02 14:20:00,51.2,42.5,29.66,ESE,122,0.0,5.0,72,0.00,,BKN041,0.00,VWS V14.01,2013-12-02 20:20:00,
2013-12-02 14:21:00,51.2,42.1,29.66,ESE,122,0.0,5.0,71,0.00,,BKN041,0.00,VWS V14.01,2013-12-02 20:21:00,
2013-12-02 14:24:00,51.3,42.6,29.66,SE,146,0.0,5.0,72,0.00,,BKN041,0.00,VWS V14.01,2013-12-02 20:24:00,
2013-12-02 14:25:00,51.3,42.6,29.66,SE,144,0.0,5.0,72,0.00,,BKN041,0.00,VWS V14.01,2013-12-02 20:25:00,
2013-12-02 14:26:00,51.3,42.6,29.66,SE,144,0.0,5.0,72,0.00,,BKN041,0.00,VWS V14.01,2013-12-02 20:26:00,
2013-12-02 14:29:00,51.5,42.4,29.66,SE,142,0.0,5.0,71,0.00,,BKN041,0.00,VWS V14.01,2013-12-02 20:29:00,
2013-12-02 14:30:00,51.6,42.9,29.66,SE,143,0.0,5.0,72,0.00,,BKN041,0.00,VWS V14.01,2013-12-02 20:30:00,
2013-12-02 14:31:00,51.6,42.9,29.66,SE,143,0.0,0.0,72,0.00,,BKN041,0.00,VWS V14.01,2013-12-02 20:31:00,
2013-12-02 14:34:00,51.8,42.7,29.66,SE,144,0.0,0.0,71,0.00,,BKN041,0.00,VWS V14.01,2013-12-02 20:34:00,
2013-12-02 14:35:00,51.8,42.7,29.66,SSE,168,0.0,5.0,71,0.00,,BKN041,0.00,VWS V14.01,2013-12-02 20:35:00,
2013-12-02 14:36:00,51.8,42.7,29.66,South,169,1.0,5.0,71,0.00,,BKN041,0.00,VWS V14.01,2013-12-02 20:36:00,
2013-12-02 14:39:00,51.9,42.8,29.66,SE,131,4.0,7.0,71,0.00,,BKN041,0.00,VWS V14.01,2013-12-02 20:39:00,
2013-12-02 14:40:00,51.9,43.2,29.66,SE,129,5.0,7.0,72,0.00,,BKN041,0.00,VWS V14.01,2013-12-02 20:40:00,
2013-12-02 14:41:00,51.9,43.2,29.66,SE,129,4.0,7.0,72,0.00,,BKN041,0.00,VWS V14.01,2013-12-02 20:41:00,
2013-12-02 14:42:00,51.9,42.8,29.66,SE,130,2.0,7.0,71,0.00,,BKN041,0.00,VWS V14.01,2013-12-02 20:42:00,
2013-12-02 14:44:00,51.9,43.2,29.66,SE,130,0.0,7.0,72,0.00,,BKN041,0.00,VWS V14.01,2013-12-02 20:44:00,
2013-12-02 14:46:00,51.9,43.2,29.66,SSE,158,0.0,7.0,72,0.00,,SCT046,0.00,VWS V14.01,2013-12-02 20:46:00,
2013-12-02 14:47:00,52.1,43.4,29.66,SSE,158,0.0,7.0,72,0.00,,SCT046,0.00,VWS V14.01,2013-12-02 20:47:00,
2013-12-02 14:49:00,52.1,43.4,29.66,South,176,5.0,7.0,72,0.00,,SCT046,0.00,VWS V14.01,2013-12-02 20:49:00,
2013-12-02 14:51:00,52.1,43.4,29.66,SSE,159,0.0,7.0,72,0.00,,SCT046,0.00,VWS V14.01,2013-12-02 20:51:00,
2013-12-02 14:52:00,52.1,43.4,29.66,SE,131,2.0,7.0,72,0.00,,SCT046,0.00,VWS V14.01,2013-12-02 20:52:00,
2013-12-02 14:54:00,51.9,43.5,29.66,SE,139,0.0,9.0,73,0.00,,SCT046,0.00,VWS V14.01,2013-12-02 20:54:00,
2013-12-02 14:56:00,51.9,43.5,29.66,SE,139,0.0,9.0,73,0.00,,SCT046,0.00,VWS V14.01,2013-12-02 20:56:00,
2013-12-02 14:57:00,51.9,43.5,29.66,South,182,2.0,9.0,73,0.00,,SCT046,0.00,VWS V14.01,2013-12-02 20:57:00,
2013-12-02 14:59:00,51.9,43.5,29.65,SE,133,4.0,9.0,73,0.00,,SCT046,0.00,VWS V14.01,2013-12-02 20:59:00,
2013-12-02 15:00:00,51.9,43.5,29.65,South,171,4.0,9.0,73,0.00,,CLR,0.00,VWS V14.01,2013-12-02 21:00:00,
2013-12-02 15:01:00,51.9,43.5,29.65,SSW,196,7.0,7.0,73,0.00,,SCT046,0.00,VWS V14.01,2013-12-02 21:01:00,
2013-12-02 15:02:00,51.9,43.5,29.65,SE,138,2.0,7.0,73,0.00,,SCT046,0.00,VWS V14.01,2013-12-02 21:02:00,
2013-12-02 15:03:00,51.9,43.5,29.65,SSE,160,0.0,7.0,73,0.00,,SCT046,0.00,VWS V14.01,2013-12-02 21:03:00,
2013-12-02 15:04:00,52.1,43.7,29.65,SSW,207,6.0,7.0,73,0.00,,SCT046,0.00,VWS V14.01,2013-12-02 21:04:00,
2013-12-02 15:06:00,52.1,43.7,29.65,SE,138,5.0,7.0,73,0.00,,SCT046,0.00,VWS V14.01,2013-12-02 21:06:00,
2013-12-02 15:07:00,52.1,43.7,29.65,SE,139,4.0,7.0,73,0.00,,SCT046,0.00,VWS V14.01,2013-12-02 21:07:00,
2013-12-02 15:08:00,52.1,43.7,29.65,SE,133,1.0,7.0,73,0.00,,SCT046,0.00,VWS V14.01,2013-12-02 21:08:00,
2013-12-02 15:10:00,52.1,43.7,29.65,South,171,5.0,7.0,73,0.00,,SCT046,0.00,VWS V14.01,2013-12-02 21:10:00,
2013-12-02 15:12:00,52.1,43.7,29.65,SE,144,2.0,9.0,73,0.00,,SCT046,0.00,VWS V14.01,2013-12-02 21:12:00,
2013-12-02 15:13:00,52.1,43.7,29.65,SE,140,4.0,9.0,73,0.00,,SCT046,0.00,VWS V14.01,2013-12-02 21:13:00,
2013-12-02 15:15:00,52.1,43.7,29.66,SSE,155,0.0,9.0,73,0.00,,BKN120,0.00,VWS V14.01,2013-12-02 21:15:00,
2013-12-02 15:17:00,52.1,43.7,29.66,South,177,6.0,9.0,73,0.00,,BKN120,0.00,VWS V14.01,2013-12-02 21:17:00,
2013-12-02 15:19:00,52.2,43.8,29.66,South,174,0.0,9.0,73,0.00,,BKN120,0.00,VWS V14.01,2013-12-02 21:19:00,
2013-12-02 15:20:00,52.4,44.0,29.66,South,175,0.0,9.0,73,0.00,,BKN120,0.00,VWS V14.01,2013-12-02 21:20:00,
2013-12-02 15:22:00,52.4,44.0,29.66,South,175,0.0,9.0,73,0.00,,BKN120,0.00,VWS V14.01,2013-12-02 21:22:00,
2013-12-02 15:24:00,52.5,44.1,29.66,SE,134,2.0,9.0,73,0.00,,BKN120,0.00,VWS V14.01,2013-12-02 21:24:00,
2013-12-02 15:26:00,52.5,44.1,29.66,SE,133,4.0,9.0,73,0.00,,BKN120,0.00,VWS V14.01,2013-12-02 21:26:00,
2013-12-02 15:27:00,52.5,44.1,29.66,SE,132,0.0,9.0,73,0.00,,BKN120,0.00,VWS V14.01,2013-12-02 21:27:00,
2013-12-02 15:28:00,52.5,44.1,29.66,South,183,3.0,9.0,73,0.00,,BKN120,0.00,VWS V14.01,2013-12-02 21:28:00,
2013-12-02 15:29:00,52.5,44.1,29.65,SSE,168,4.0,9.0,73,0.00,,BKN120,0.00,VWS V14.01,2013-12-02 21:29:00,
2013-12-02 15:30:00,52.5,44.1,29.65,ESE,118,7.0,9.0,73,0.00,,CLR,0.00,VWS V14.01,2013-12-02 21:30:00,
2013-12-02 15:31:00,52.5,44.1,29.65,SSE,150,4.0,8.0,73,0.00,,BKN120,0.00,VWS V14.01,2013-12-02 21:31:00,
2013-12-02 15:32:00,52.5,44.1,29.65,SSE,162,3.0,8.0,73,0.00,,BKN120,0.00,VWS V14.01,2013-12-02 21:32:00,
2013-12-02 15:33:00,52.5,44.1,29.65,ESE,111,3.0,8.0,73,0.00,,BKN120,0.00,VWS V14.01,2013-12-02 21:33:00,
2013-12-02 15:35:00,52.4,44.0,29.65,SSE,149,3.0,8.0,73,0.00,,BKN120,0.00,VWS V14.01,2013-12-02 21:35:00,
2013-12-02 15:36:00,52.4,44.0,29.65,SE,136,0.0,8.0,73,0.00,,BKN120,0.00,VWS V14.01,2013-12-02 21:36:00,
2013-12-02 15:38:00,52.2,43.8,29.65,South,176,3.0,8.0,73,0.00,,BKN120,0.00,VWS V14.01,2013-12-02 21:38:00,
2013-12-02 15:40:00,52.2,44.2,29.65,SE,134,4.0,8.0,74,0.00,,BKN120,0.00,VWS V14.01,2013-12-02 21:40:00,
2013-12-02 15:41:00,52.2,44.2,29.65,SE,125,4.0,8.0,74,0.00,,BKN120,0.00,VWS V14.01,2013-12-02 21:41:00,
2013-12-02 15:43:00,52.2,44.2,29.65,SE,132,4.0,8.0,74,0.00,,BKN120,0.00,VWS V14.01,2013-12-02 21:43:00,
2013-12-02 15:46:00,52.2,44.2,29.65,SE,133,0.0,8.0,74,0.00,,BKN120,0.00,VWS V14.01,2013-12-02 21:46:00,
2013-12-02 15:47:00,52.2,44.2,29.65,ESE,121,0.0,8.0,74,0.00,,BKN120,0.00,VWS V14.01,2013-12-02 21:47:00,
2013-12-02 15:48:00,52.2,44.2,29.65,SE,126,0.0,8.0,74,0.00,,BKN120,0.00,VWS V14.01,2013-12-02 21:48:00,
2013-12-02 15:51:00,52.1,44.1,29.65,SE,136,2.0,8.0,74,0.00,,BKN120,0.00,VWS V14.01,2013-12-02 21:51:00,
2013-12-02 15:52:00,52.1,44.1,29.65,SE,136,0.0,8.0,74,0.00,,BKN120,0.00,VWS V14.01,2013-12-02 21:52:00,
2013-12-02 15:53:00,52.1,44.1,29.65,South,178,3.0,8.0,74,0.00,,BKN120,0.00,VWS V14.01,2013-12-02 21:53:00,
2013-12-02 15:55:00,52.1,44.1,29.65,South,178,0.0,8.0,74,0.00,,BKN120,0.00,VWS V14.01,2013-12-02 21:55:00,
2013-12-02 15:57:00,52.1,44.1,29.65,South,177,0.0,8.0,74,0.00,,BKN120,0.00,VWS V14.01,2013-12-02 21:57:00,
2013-12-02 15:58:00,52.1,44.4,29.65,South,177,0.0,8.0,75,0.00,,BKN120,0.00,VWS V14.01,2013-12-02 21:58:00,
2013-12-02 16:00:00,52.1,44.4,29.66,South,177,0.0,0.0,75,0.00,,SCT110,0.00,VWS V14.01,2013-12-02 22:00:00,
2013-12-02 16:02:00,52.1,44.4,29.66,South,177,0.0,0.0,75,0.00,,SCT110,0.00,VWS V14.01,2013-12-02 22:02:00,
2013-12-02 16:03:00,52.1,44.4,29.66,South,176,0.0,0.0,75,0.00,,SCT110,0.00,VWS V14.01,2013-12-02 22:03:00,
2013-12-02 16:04:00,52.1,44.4,29.66,South,176,0.0,0.0,75,0.00,,SCT110,0.00,VWS V14.01,2013-12-02 22:04:00,
2013-12-02 16:05:00,51.9,44.2,29.66,South,176,0.0,0.0,75,0.00,,SCT110,0.00,VWS V14.01,2013-12-02 22:05:00,
2013-12-02 16:07:00,51.9,44.2,29.66,SSE,160,0.0,1.0,75,0.00,,SCT110,0.00,VWS V14.01,2013-12-02 22:07:00,
2013-12-02 16:08:00,51.9,44.2,29.66,SSE,159,0.0,1.0,75,0.00,,SCT110,0.00,VWS V14.01,2013-12-02 22:08:00,
2013-12-02 16:09:00,51.9,44.2,29.66,SSE,159,0.0,1.0,75,0.00,,SCT110,0.00,VWS V14.01,2013-12-02 22:09:00,
2013-12-02 16:10:00,51.9,44.2,29.66,SSE,159,0.0,1.0,75,0.00,,SCT110,0.00,VWS V14.01,2013-12-02 22:10:00,
2013-12-02 16:12:00,51.9,44.2,29.66,SSE,159,0.0,1.0,75,0.00,,SCT110,0.00,VWS V14.01,2013-12-02 22:12:00,
2013-12-02 16:13:00,51.9,44.2,29.66,SSE,159,0.0,1.0,75,0.00,,SCT110,0.00,VWS V14.01,2013-12-02 22:13:00,
2013-12-02 16:14:00,51.9,44.2,29.66,SSE,159,0.0,1.0,75,0.00,,SCT110,0.00,VWS V14.01,2013-12-02 22:14:00,
2013-12-02 16:15:00,51.8,44.1,29.65,SSE,159,0.0,1.0,75,0.00,,SCT110,0.00,VWS V14.01,2013-12-02 22:15:00,
2013-12-02 16:18:00,51.8,44.1,29.65,SSE,159,0.0,1.0,75,0.00,,SCT110,0.00,VWS V14.01,2013-12-02 22:18:00,
2013-12-02 16:19:00,51.8,44.1,29.65,SSE,159,0.0,1.0,75,0.00,,SCT110,0.00,VWS V14.01,2013-12-02 22:19:00,
2013-12-02 16:21:00,51.8,44.1,29.65,SSE,159,0.0,1.0,75,0.00,,SCT110,0.00,VWS V14.01,2013-12-02 22:21:00,
2013-12-02 16:23:00,51.6,44.3,29.65,SSE,159,0.0,1.0,76,0.00,,SCT110,0.00,VWS V14.01,2013-12-02 22:23:00,
2013-12-02 16:24:00,51.6,44.3,29.65,SSE,159,0.0,1.0,76,0.00,,SCT110,0.00,VWS V14.01,2013-12-02 22:24:00,
2013-12-02 16:26:00,51.5,44.2,29.65,SSE,159,0.0,1.0,76,0.00,,SCT110,0.00,VWS V14.01,2013-12-02 22:26:00,
2013-12-02 16:28:00,51.5,44.2,29.65,SSE,159,0.0,1.0,76,0.00,,SCT110,0.00,VWS V14.01,2013-12-02 22:28:00,
2013-12-02 16:29:00,51.5,44.2,29.65,SSE,159,0.0,1.0,76,0.00,,SCT110,0.00,VWS V14.01,2013-12-02 22:29:00,
2013-12-02 16:30:00,51.5,44.2,29.65,SSE,159,0.0,1.0,76,0.00,,SCT110,0.00,VWS V14.01,2013-12-02 22:30:00,
2013-12-02 16:31:00,51.3,44.0,29.65,SSE,157,0.0,1.0,76,0.00,,SCT110,0.00,VWS V14.01,2013-12-02 22:31:00,
2013-12-02 16:33:00,51.2,43.6,29.65,SSE,157,0.0,1.0,75,0.00,,SCT110,0.00,VWS V14.01,2013-12-02 22:33:00,
2013-12-02 16:34:00,51.0,43.4,29.65,SE,138,0.0,1.0,75,0.00,,SCT110,0.00,VWS V14.01,2013-12-02 22:34:00,
2013-12-02 16:35:00,50.9,42.9,29.65,ESE,103,0.0,1.0,74,0.00,,SCT110,0.00,VWS V14.01,2013-12-02 22:35:00,
2013-12-02 16:36:00,50.7,42.7,29.65,ESE,103,0.0,1.0,74,0.00,,SCT110,0.00,VWS V14.01,2013-12-02 22:36:00,
2013-12-02 16:38:00,50.6,42.6,29.65,ESE,103,0.0,1.0,74,0.00,,SCT110,0.00,VWS V14.01,2013-12-02 22:38:00,
2013-12-02 16:39:00,50.6,42.6,29.65,ESE,103,0.0,1.0,74,0.00,,SCT110,0.00,VWS V14.01,2013-12-02 22:39:00,
2013-12-02 16:41:00,50.3,42.3,29.65,ESE,108,1.0,1.0,74,0.00,,SCT110,0.00,VWS V14.01,2013-12-02 22:41:00,
2013-12-02 16:43:00,50.1,42.5,29.65,ESE,108,0.0,2.0,75,0.00,,SCT110,0.00,VWS V14.01,2013-12-02 22:43:00,
2013-12-02 16:44:00,50.1,42.5,29.65,ESE,108,0.0,2.0,75,0.00,,SCT110,0.00,VWS V14.01,2013-12-02 22:44:00,
2013-12-02 16:46:00,49.8,42.2,29.66,ESE,108,0.0,2.0,75,0.00,,CLR,0.00,VWS V14.01,2013-12-02 22:46:00,
2013-12-02 16:47:00,49.8,42.2,29.66,ESE,108,0.0,2.0,75,0.00,,CLR,0.00,VWS V14.01,2013-12-02 22:47:00,
2013-12-02 16:49:00,49.7,42.1,29.66,ESE,108,0.0,2.0,75,0.00,,CLR,0.00,VWS V14.01,2013-12-02 22:49:00,
2013-12-02 16:50:00,49.5,41.9,29.66,ESE,108,0.0,2.0,75,0.00,,CLR,0.00,VWS V14.01,2013-12-02 22:50:00,
2013-12-02 16:52:00,49.4,41.8,29.66,ESE,109,0.0,2.0,75,0.00,,CLR,0.00,VWS V14.01,2013-12-02 22:52:00,
2013-12-02 16:54:00,49.3,42.1,29.66,ESE,109,0.0,2.0,76,0.00,,CLR,0.00,VWS V14.01,2013-12-02 22:54:00,
2013-12-02 16:55:00,49.3,42.1,29.66,ESE,109,0.0,2.0,76,0.00,,CLR,0.00,VWS V14.01,2013-12-02 22:55:00,
2013-12-02 16:57:00,49.0,41.8,29.66,ESE,111,0.0,2.0,76,0.00,,CLR,0.00,VWS V14.01,2013-12-02 22:57:00,
2013-12-02 16:59:00,48.8,41.6,29.66,ESE,112,0.0,2.0,76,0.00,,CLR,0.00,VWS V14.01,2013-12-02 22:59:00,
2013-12-02 17:00:00,48.8,41.6,29.66,ESE,113,0.0,2.0,76,0.00,,CLR,0.00,VWS V14.01,2013-12-02 23:00:00,
2013-12-02 17:02:00,48.7,41.8,29.66,ESE,119,0.0,0.0,77,0.00,,SCT036,0.00,VWS V14.01,2013-12-02 23:02:00,
2013-12-02 17:04:00,48.5,41.6,29.66,SE,133,0.0,1.0,77,0.00,,SCT036,0.00,VWS V14.01,2013-12-02 23:04:00,
2013-12-02 17:05:00,48.5,41.6,29.66,SE,131,0.0,1.0,77,0.00,,SCT036,0.00,VWS V14.01,2013-12-02 23:05:00,
2013-12-02 17:06:00,48.5,41.6,29.66,SE,129,0.0,1.0,77,0.00,,SCT036,0.00,VWS V14.01,2013-12-02 23:06:00,
2013-12-02 17:07:00,48.4,41.5,29.66,SE,132,0.0,1.0,77,0.00,,SCT036,0.00,VWS V14.01,2013-12-02 23:07:00,
2013-12-02 17:09:00,48.2,41.3,29.66,SE,142,0.0,4.0,77,0.00,,SCT036,0.00,VWS V14.01,2013-12-02 23:09:00,
2013-12-02 17:10:00,48.2,41.3,29.66,SE,142,0.0,4.0,77,0.00,,SCT036,0.00,VWS V14.01,2013-12-02 23:10:00,
2013-12-02 17:11:00,48.2,41.3,29.66,SE,142,0.0,4.0,77,0.00,,SCT036,0.00,VWS V14.01,2013-12-02 23:11:00,
2013-12-02 17:12:00,48.2,41.3,29.66,SE,141,0.0,4.0,77,0.00,,SCT036,0.00,VWS V14.01,2013-12-02 23:12:00,
2013-12-02 17:13:00,48.1,41.2,29.66,SE,141,0.0,4.0,77,0.00,,SCT036,0.00,VWS V14.01,2013-12-02 23:13:00,
2013-12-02 17:15:00,48.1,41.2,29.66,SE,140,0.0,4.0,77,0.00,,SCT036,0.00,VWS V14.01,2013-12-02 23:15:00,
2013-12-02 17:16:00,47.9,41.0,29.66,SE,140,0.0,4.0,77,0.00,,SCT036,0.00,VWS V14.01,2013-12-02 23:16:00,
2013-12-02 17:17:00,47.9,41.4,29.66,SE,140,0.0,4.0,78,0.00,,SCT036,0.00,VWS V14.01,2013-12-02 23:17:00,
2013-12-02 17:18:00,47.9,41.4,29.66,SE,140,0.0,4.0,78,0.00,,SCT036,0.00,VWS V14.01,2013-12-02 23:18:00,
2013-12-02 17:20:00,47.8,41.3,29.66,SE,140,0.0,4.0,78,0.00,,SCT036,0.00,VWS V14.01,2013-12-02 23:20:00,
2013-12-02 17:21:00,47.8,41.3,29.66,ESE,122,2.0,4.0,78,0.00,,SCT036,0.00,VWS V14.01,2013-12-02 23:21:00,
2013-12-02 17:22:00,47.6,41.1,29.66,ESE,121,4.0,5.0,78,0.00,,SCT036,0.00,VWS V14.01,2013-12-02 23:22:00,
2013-12-02 17:24:00,47.6,41.1,29.66,SE,130,4.0,5.0,78,0.00,,SCT036,0.00,VWS V14.01,2013-12-02 23:24:00,
2013-12-02 17:25:00,47.6,41.4,29.66,ESE,121,2.0,5.0,79,0.00,,SCT036,0.00,VWS V14.01,2013-12-02 23:25:00,
2013-12-02 17:26:00,47.6,41.4,29.66,SE,127,2.0,5.0,79,0.00,,SCT036,0.00,VWS V14.01,2013-12-02 23:26:00,
2013-12-02 17:28:00,47.5,41.3,29.66,SE,125,2.0,5.0,79,0.00,,SCT036,0.00,VWS V14.01,2013-12-02 23:28:00,
2013-12-02 17:29:00,47.5,41.3,29.66,SE,127,0.0,5.0,79,0.00,,SCT036,0.00,VWS V14.01,2013-12-02 23:29:00,
2013-12-02 17:30:00,47.5,41.3,29.66,SE,127,0.0,5.0,79,0.00,,SCT036,0.00,VWS V14.01,2013-12-02 23:30:00,
2013-12-02 17:31:00,47.5,41.3,29.66,SE,127,0.0,1.0,79,0.00,,SCT036,0.00,VWS V14.01,2013-12-02 23:31:00,
2013-12-02 17:32:00,47.5,41.3,29.66,SE,127,0.0,1.0,79,0.00,,SCT036,0.00,VWS V14.01,2013-12-02 23:32:00,
2013-12-02 17:33:00,47.5,41.3,29.66,ESE,123,0.0,1.0,79,0.00,,SCT036,0.00,VWS V14.01,2013-12-02 23:33:00,
2013-12-02 17:35:00,47.3,41.1,29.66,ESE,123,0.0,1.0,79,0.00,,SCT036,0.00,VWS V14.01,2013-12-02 23:35:00,
2013-12-02 17:36:00,47.3,41.1,29.66,ESE,123,0.0,1.0,79,0.00,,SCT036,0.00,VWS V14.01,2013-12-02 23:36:00,
2013-12-02 17:37:00,47.3,41.1,29.66,ESE,123,0.0,1.0,79,0.00,,SCT036,0.00,VWS V14.01,2013-12-02 23:37:00,
2013-12-02 17:38:00,47.3,41.1,29.66,ESE,123,0.0,1.0,79,0.00,,SCT036,0.00,VWS V14.01,2013-12-02 23:38:00,
2013-12-02 17:40:00,47.3,41.1,29.66,ESE,122,0.0,1.0,79,0.00,,SCT036,0.00,VWS V14.01,2013-12-02 23:40:00,
2013-12-02 17:41:00,47.2,41.4,29.66,ESE,123,0.0,1.0,80,0.00,,SCT036,0.00,VWS V14.01,2013-12-02 23:41:00,
2013-12-02 17:42:00,47.2,41.4,29.66,ESE,123,0.0,1.0,80,0.00,,SCT036,0.00,VWS V14.01,2013-12-02 23:42:00,
2013-12-02 17:44:00,47.2,41.4,29.66,ESE,123,0.0,1.0,80,0.00,,SCT036,0.00,VWS V14.01,2013-12-02 23:44:00,
2013-12-02 17:45:00,47.2,41.4,29.66,ESE,123,0.0,1.0,80,0.00,,CLR,0.00,VWS V14.01,2013-12-02 23:45:00,
2013-12-02 17:47:00,47.0,41.2,29.66,ESE,123,0.0,1.0,80,0.00,,CLR,0.00,VWS V14.01,2013-12-02 23:47:00,
2013-12-02 17:49:00,46.9,41.1,29.66,ESE,123,0.0,1.0,80,0.00,,CLR,0.00,VWS V14.01,2013-12-02 23:49:00,
2013-12-02 17:50:00,46.9,41.1,29.66,ESE,123,0.0,1.0,80,0.00,,CLR,0.00,VWS V14.01,2013-12-02 23:50:00,
2013-12-02 17:52:00,46.7,40.9,29.66,SE,125,0.0,1.0,80,0.00,,CLR,0.00,VWS V14.01,2013-12-02 23:52:00,
2013-12-02 17:54:00,46.6,41.1,29.66,ESE,121,2.0,3.0,81,0.00,,CLR,0.00,VWS V14.01,2013-12-02 23:54:00,
2013-12-02 17:55:00,46.6,41.1,29.66,ESE,121,0.0,3.0,81,0.00,,CLR,0.00,VWS V14.01,2013-12-02 23:55:00,
2013-12-02 17:57:00,46.4,40.9,29.66,ESE,122,0.0,3.0,81,0.00,,CLR,0.00,VWS V14.01,2013-12-02 23:57:00,
2013-12-02 17:59:00,46.4,40.9,29.66,ESE,123,0.0,3.0,81,0.00,,CLR,0.00,VWS V14.01,2013-12-02 23:59:00,
2013-12-02 18:00:00,46.4,40.9,29.66,ESE,123,0.0,0.0,81,0.00,,CLR,0.00,VWS V14.01,2013-12-03 00:00:00,
2013-12-02 18:02:00,46.3,40.8,29.66,ESE,123,0.0,0.0,81,0.00,,CLR,0.00,VWS V14.01,2013-12-03 00:02:00,
2013-12-02 18:04:00,46.4,40.9,29.66,ESE,123,0.0,1.0,81,0.00,,CLR,0.00,VWS V14.01,2013-12-03 00:04:00,
2013-12-02 18:05:00,46.4,41.2,29.66,ESE,123,0.0,1.0,82,0.00,,CLR,0.00,VWS V14.01,2013-12-03 00:05:00,
2013-12-02 18:06:00,46.4,41.2,29.66,ESE,123,0.0,1.0,82,0.00,,CLR,0.00,VWS V14.01,2013-12-03 00:06:00,
2013-12-02 18:07:00,46.4,41.2,29.66,SE,125,3.0,4.0,82,0.00,,CLR,0.00,VWS V14.01,2013-12-03 00:07:00,
2013-12-02 18:10:00,46.4,41.2,29.66,SE,136,0.0,4.0,82,0.00,,CLR,0.00,VWS V14.01,2013-12-03 00:10:00,
2013-12-02 18:11:00,46.4,41.2,29.66,ESE,121,0.0,4.0,82,0.00,,CLR,0.00,VWS V14.01,2013-12-03 00:11:00,
2013-12-02 18:12:00,46.4,41.2,29.66,SE,132,3.0,4.0,82,0.00,,CLR,0.00,VWS V14.01,2013-12-03 00:12:00,
2013-12-02 18:15:00,46.4,41.2,29.66,ESE,107,0.0,4.0,82,0.00,,CLR,0.00,VWS V14.01,2013-12-03 00:15:00,
2013-12-02 18:16:00,46.4,41.2,29.66,SE,128,2.0,5.0,82,0.00,,CLR,0.00,VWS V14.01,2013-12-03 00:16:00,
2013-12-02 18:17:00,46.4,41.2,29.66,SE,129,0.0,5.0,82,0.00,,CLR,0.00,VWS V14.01,2013-12-03 00:17:00,
2013-12-02 18:18:00,46.4,41.2,29.66,SE,128,0.0,5.0,82,0.00,,CLR,0.00,VWS V14.01,2013-12-03 00:18:00,
2013-12-02 18:20:00,46.3,41.1,29.66,ESE,116,0.0,5.0,82,0.00,,CLR,0.00,VWS V14.01,2013-12-03 00:20:00,
2013-12-02 18:21:00,46.3,41.1,29.66,ESE,123,1.0,5.0,82,0.00,,CLR,0.00,VWS V14.01,2013-12-03 00:21:00,
2013-12-02 18:22:00,46.3,41.1,29.66,ESE,122,1.0,5.0,82,0.00,,CLR,0.00,VWS V14.01,2013-12-03 00:22:00,
2013-12-02 18:23:00,46.3,41.1,29.66,ESE,122,0.0,5.0,82,0.00,,CLR,0.00,VWS V14.01,2013-12-03 00:23:00,
2013-12-02 18:25:00,46.3,41.1,29.66,ESE,123,0.0,5.0,82,0.00,,CLR,0.00,VWS V14.01,2013-12-03 00:25:00,
2013-12-02 18:26:00,46.3,41.1,29.66,ESE,119,0.0,5.0,82,0.00,,CLR,0.00,VWS V14.01,2013-12-03 00:26:00,
2013-12-02 18:28:00,46.3,41.1,29.66,ESE,116,0.0,5.0,82,0.00,,CLR,0.00,VWS V14.01,2013-12-03 00:28:00,
2013-12-02 18:29:00,46.3,41.1,29.66,ESE,119,0.0,5.0,82,0.00,,CLR,0.00,VWS V14.01,2013-12-03 00:29:00,
2013-12-02 18:30:00,46.3,41.1,29.66,ESE,119,0.0,0.0,82,0.00,,CLR,0.00,VWS V14.01,2013-12-03 00:30:00,
2013-12-02 18:31:00,46.1,40.9,29.66,ESE,119,0.0,0.0,82,0.00,,CLR,0.00,VWS V14.01,2013-12-03 00:31:00,
2013-12-02 18:33:00,46.1,41.2,29.66,ESE,123,2.0,3.0,83,0.00,,CLR,0.00,VWS V14.01,2013-12-03 00:33:00,
2013-12-02 18:34:00,46.0,41.1,29.66,ESE,123,2.0,3.0,83,0.00,,CLR,0.00,VWS V14.01,2013-12-03 00:34:00,
2013-12-02 18:35:00,46.0,41.1,29.66,ESE,121,0.0,3.0,83,0.00,,CLR,0.00,VWS V14.01,2013-12-03 00:35:00,
2013-12-02 18:36:00,46.0,41.1,29.66,ESE,121,0.0,3.0,83,0.00,,CLR,0.00,VWS V14.01,2013-12-03 00:36:00,
2013-12-02 18:38:00,45.9,41.0,29.66,ESE,119,0.0,3.0,83,0.00,,CLR,0.00,VWS V14.01,2013-12-03 00:38:00,
2013-12-02 18:39:00,45.9,41.0,29.66,ESE,119,0.0,3.0,83,0.00,,CLR,0.00,VWS V14.01,2013-12-03 00:39:00,
2013-12-02 18:41:00,45.9,41.0,29.66,ESE,119,0.0,3.0,83,0.00,,CLR,0.00,VWS V14.01,2013-12-03 00:41:00,
2013-12-02 18:42:00,45.7,40.8,29.66,SE,143,0.0,3.0,83,0.00,,CLR,0.00,VWS V14.01,2013-12-03 00:42:00,
2013-12-02 18:43:00,45.7,40.8,29.66,SE,142,0.0,3.0,83,0.00,,CLR,0.00,VWS V14.01,2013-12-03 00:43:00,
2013-12-02 18:44:00,45.7,40.8,29.66,SE,140,0.0,3.0,83,0.00,,CLR,0.00,VWS V14.01,2013-12-03 00:44:00,
2013-12-02 18:45:00,45.7,41.2,29.66,SE,140,0.0,3.0,84,0.00,,CLR,0.00,VWS V14.01,2013-12-03 00:45:00,
2013-12-02 18:46:00,45.7,41.2,29.66,SE,138,0.0,3.0,84,0.00,,CLR,0.00,VWS V14.01,2013-12-03 00:46:00,
2013-12-02 18:47:00,45.7,41.2,29.66,SE,138,0.0,3.0,84,0.00,,CLR,0.00,VWS V14.01,2013-12-03 00:47:00,
2013-12-02 18:49:00,45.6,41.0,29.66,SE,138,0.0,3.0,84,0.00,,CLR,0.00,VWS V14.01,2013-12-03 00:49:00,
2013-12-02 18:50:00,45.6,41.0,29.66,SE,138,0.0,3.0,84,0.00,,CLR,0.00,VWS V14.01,2013-12-03 00:50:00,
2013-12-02 18:51:00,45.6,41.0,29.66,SE,138,0.0,3.0,84,0.00,,CLR,0.00,VWS V14.01,2013-12-03 00:51:00,
2013-12-02 18:52:00,45.6,41.0,29.66,SE,130,0.0,3.0,84,0.00,,CLR,0.00,VWS V14.01,2013-12-03 00:52:00,
2013-12-02 18:54:00,45.6,41.0,29.66,SE,130,0.0,3.0,84,0.00,,CLR,0.00,VWS V14.01,2013-12-03 00:54:00,
2013-12-02 18:55:00,45.4,40.9,29.66,SE,130,0.0,3.0,84,0.00,,CLR,0.00,VWS V14.01,2013-12-03 00:55:00,
2013-12-02 18:56:00,45.4,40.9,29.66,SE,130,0.0,3.0,84,0.00,,CLR,0.00,VWS V14.01,2013-12-03 00:56:00,
2013-12-02 18:58:00,45.3,40.8,29.66,SE,130,0.0,3.0,84,0.00,,CLR,0.00,VWS V14.01,2013-12-03 00:58:00,
2013-12-02 19:00:00,45.1,40.6,29.67,SE,130,0.0,3.0,84,0.00,,CLR,0.00,VWS V14.01,2013-12-03 01:00:00,
2013-12-02 19:01:00,45.1,40.6,29.67,SE,130,0.0,0.0,84,0.00,,CLR,0.00,VWS V14.01,2013-12-03 01:01:00,
2013-12-02 19:02:00,45.0,40.5,29.67,SE,130,0.0,0.0,84,0.00,,CLR,0.00,VWS V14.01,2013-12-03 01:02:00,
2013-12-02 19:03:00,45.0,40.5,29.67,SE,130,0.0,0.0,84,0.00,,CLR,0.00,VWS V14.01,2013-12-03 01:03:00,
2013-12-02 19:05:00,44.8,40.6,29.67,SE,130,0.0,0.0,85,0.00,,CLR,0.00,VWS V14.01,2013-12-03 01:05:00,
2013-12-02 19:06:00,44.8,40.3,29.67,SE,130,0.0,0.0,84,0.00,,CLR,0.00,VWS V14.01,2013-12-03 01:06:00,
2013-12-02 19:07:00,44.8,40.6,29.67,SE,130,0.0,0.0,85,0.00,,CLR,0.00,VWS V14.01,2013-12-03 01:07:00,
2013-12-02 19:08:00,44.7,40.5,29.67,SE,130,0.0,0.0,85,0.00,,CLR,0.00,VWS V14.01,2013-12-03 01:08:00,
2013-12-02 19:11:00,44.7,40.5,29.67,SE,130,0.0,0.0,85,0.00,,CLR,0.00,VWS V14.01,2013-12-03 01:11:00,
2013-12-02 19:12:00,44.5,40.3,29.67,SE,130,0.0,0.0,85,0.00,,CLR,0.00,VWS V14.01,2013-12-03 01:12:00,
2013-12-02 19:13:00,44.4,40.2,29.67,SE,130,0.0,0.0,85,0.00,,CLR,0.00,VWS V14.01,2013-12-03 01:13:00,
2013-12-02 19:16:00,44.2,40.0,29.67,SE,128,0.0,1.0,85,0.00,,CLR,0.00,VWS V14.01,2013-12-03 01:16:00,
2013-12-02 19:17:00,44.2,40.3,29.67,SE,129,0.0,1.0,86,0.00,,CLR,0.00,VWS V14.01,2013-12-03 01:17:00,
2013-12-02 19:19:00,44.1,40.2,29.67,SE,128,0.0,1.0,86,0.00,,CLR,0.00,VWS V14.01,2013-12-03 01:19:00,
2013-12-02 19:21:00,44.2,40.3,29.67,SE,128,0.0,1.0,86,0.00,,CLR,0.00,VWS V14.01,2013-12-03 01:21:00,
2013-12-02 19:22:00,44.2,40.3,29.67,SE,128,0.0,1.0,86,0.00,,CLR,0.00,VWS V14.01,2013-12-03 01:22:00,
2013-12-02 19:23:00,44.2,40.6,29.67,SE,128,0.0,1.0,87,0.00,,CLR,0.00,VWS V14.01,2013-12-03 01:23:00,
2013-12-02 19:24:00,44.2,40.6,29.67,SE,129,0.0,1.0,87,0.00,,CLR,0.00,VWS V14.01,2013-12-03 01:24:00,
2013-12-02 19:26:00,44.4,40.8,29.67,SE,130,0.0,1.0,87,0.00,,CLR,0.00,VWS V14.01,2013-12-03 01:26:00,
2013-12-02 19:27:00,44.4,40.8,29.67,SE,130,0.0,1.0,87,0.00,,CLR,0.00,VWS V14.01,2013-12-03 01:27:00,
2013-12-02 19:28:00,44.5,40.9,29.67,SE,132,3.0,3.0,87,0.00,,CLR,0.00,VWS V14.01,2013-12-03 01:28:00,
2013-12-02 19:29:00,44.5,40.9,29.67,SE,130,3.0,5.0,87,0.00,,CLR,0.00,VWS V14.01,2013-12-03 01:29:00,
2013-12-02 19:30:00,44.7,41.4,29.66,SE,124,3.0,5.0,88,0.00,,CLR,0.00,VWS V14.01,2013-12-03 01:30:00,
2013-12-02 19:31:00,44.8,41.5,29.66,SE,131,1.0,5.0,88,0.00,,CLR,0.00,VWS V14.01,2013-12-03 01:31:00,
2013-12-02 19:32:00,44.8,41.5,29.66,SE,131,1.0,5.0,88,0.00,,CLR,0.00,VWS V14.01,2013-12-03 01:32:00,
2013-12-02 19:33:00,44.8,41.2,29.66,SE,131,2.0,5.0,87,0.00,,CLR,0.00,VWS V14.01,2013-12-03 01:33:00,
2013-12-02 19:34:00,44.8,41.2,29.66,SE,131,0.0,5.0,87,0.00,,CLR,0.00,VWS V14.01,2013-12-03 01:34:00,
2013-12-02 19:36:00,44.8,41.2,29.66,SE,124,0.0,5.0,87,0.00,,CLR,0.00,VWS V14.01,2013-12-03 01:36:00,
2013-12-02 19:37:00,44.8,41.2,29.66,SE,124,0.0,5.0,87,0.00,,CLR,0.00,VWS V14.01,2013-12-03 01:37:00,
2013-12-02 19:38:00,44.8,41.2,29.66,SE,132,0.0,5.0,87,0.00,,CLR,0.00,VWS V14.01,2013-12-03 01:38:00,
2013-12-02 19:39:00,44.8,41.2,29.66,SE,136,0.0,5.0,87,0.00,,CLR,0.00,VWS V14.01,2013-12-03 01:39:00,
2013-12-02 19:42:00,44.8,41.5,29.66,SE,139,3.0,5.0,88,0.00,,CLR,0.00,VWS V14.01,2013-12-03 01:42:00,
2013-12-02 19:43:00,45.0,41.4,29.66,SE,138,2.0,5.0,87,0.00,,CLR,0.00,VWS V14.01,2013-12-03 01:43:00,
2013-12-02 19:44:00,45.0,41.4,29.66,SE,136,2.0,5.0,87,0.00,,CLR,0.00,VWS V14.01,2013-12-03 01:44:00,
2013-12-02 19:47:00,45.0,41.4,29.66,SE,130,4.0,5.0,87,0.00,,CLR,0.00,VWS V14.01,2013-12-03 01:47:00,
2013-12-02 19:48:00,45.0,41.7,29.66,ESE,118,2.0,6.0,88,0.00,,CLR,0.00,VWS V14.01,2013-12-03 01:48:00,
2013-12-02 19:49:00,45.0,41.7,29.66,SE,135,2.0,6.0,88,0.00,,CLR,0.00,VWS V14.01,2013-12-03 01:49:00,
2013-12-02 19:52:00,45.1,41.8,29.66,SE,131,4.0,7.0,88,0.00,,CLR,0.00,VWS V14.01,2013-12-03 01:52:00,
2013-12-02 19:53:00,45.1,41.8,29.66,SE,133,4.0,7.0,88,0.00,,CLR,0.00,VWS V14.01,2013-12-03 01:53:00,
2013-12-02 19:54:00,45.1,41.8,29.66,SE,133,3.0,7.0,88,0.00,,CLR,0.00,VWS V14.01,2013-12-03 01:54:00,
2013-12-02 19:57:00,45.1,41.8,29.66,SE,132,0.0,7.0,88,0.00,,CLR,0.00,VWS V14.01,2013-12-03 01:57:00,
2013-12-02 19:58:00,45.1,41.5,29.66,SE,124,3.0,7.0,87,0.00,,CLR,0.00,VWS V14.01,2013-12-03 01:58:00,
2013-12-02 19:59:00,45.1,41.8,29.66,SE,138,3.0,7.0,88,0.00,,CLR,0.00,VWS V14.01,2013-12-03 01:59:00,
2013-12-02 20:00:00,45.1,41.8,29.66,SE,140,2.0,7.0,88,0.00,,CLR,0.00,VWS V14.01,2013-12-03 02:00:00,
2013-12-02 20:02:00,45.0,41.4,29.66,SE,138,4.0,5.0,87,0.00,,CLR,0.00,VWS V14.01,2013-12-03 02:02:00,
2013-12-02 20:03:00,45.0,41.4,29.66,SE,135,3.0,5.0,87,0.00,,CLR,0.00,VWS V14.01,2013-12-03 02:03:00,
2013-12-02 20:04:00,45.0,41.7,29.66,SE,135,0.0,5.0,88,0.00,,CLR,0.00,VWS V14.01,2013-12-03 02:04:00,
2013-12-02 20:06:00,45.0,41.7,29.66,SE,135,0.0,5.0,88,0.00,,CLR,0.00,VWS V14.01,2013-12-03 02:06:00,
2013-12-02 20:07:00,45.0,41.7,29.66,SE,135,0.0,5.0,88,0.00,,CLR,0.00,VWS V14.01,2013-12-03 02:07:00,
2013-12-02 20:08:00,45.0,41.7,29.66,SE,135,0.0,5.0,88,0.00,,CLR,0.00,VWS V14.01,2013-12-03 02:08:00,
2013-12-02 20:09:00,44.8,41.5,29.66,SE,135,0.0,5.0,88,0.00,,CLR,0.00,VWS V14.01,2013-12-03 02:09:00,
2013-12-02 20:10:00,44.8,41.5,29.66,SE,135,0.0,5.0,88,0.00,,CLR,0.00,VWS V14.01,2013-12-03 02:10:00,
2013-12-02 20:12:00,44.8,41.5,29.66,SE,138,0.0,5.0,88,0.00,,CLR,0.00,VWS V14.01,2013-12-03 02:12:00,
2013-12-02 20:13:00,45.0,41.7,29.66,SE,137,0.0,5.0,88,0.00,,CLR,0.00,VWS V14.01,2013-12-03 02:13:00,
2013-12-02 20:14:00,45.0,41.7,29.66,SE,132,1.0,5.0,88,0.00,,CLR,0.00,VWS V14.01,2013-12-03 02:14:00,
2013-12-02 20:15:00,45.0,41.7,29.66,SE,136,3.0,5.0,88,0.00,,CLR,0.00,VWS V14.01,2013-12-03 02:15:00,
2013-12-02 20:17:00,45.1,41.8,29.66,SE,137,0.0,5.0,88,0.00,,CLR,0.00,VWS V14.01,2013-12-03 02:17:00,
2013-12-02 20:18:00,45.1,41.8,29.66,SE,130,4.0,5.0,88,0.00,,CLR,0.00,VWS V14.01,2013-12-03 02:18:00,
2013-12-02 20:19:00,45.1,41.8,29.66,SE,130,2.0,5.0,88,0.00,,CLR,0.00,VWS V14.01,2013-12-03 02:19:00,
2013-12-02 20:20:00,45.1,41.8,29.66,SE,131,2.0,5.0,88,0.00,,CLR,0.00,VWS V14.01,2013-12-03 02:20:00,
2013-12-02 20:22:00,45.1,41.8,29.66,SE,134,2.0,5.0,88,0.00,,CLR,0.00,VWS V14.01,2013-12-03 02:22:00,
2013-12-02 20:23:00,45.1,41.8,29.66,SE,132,5.0,5.0,88,0.00,,CLR,0.00,VWS V14.01,2013-12-03 02:23:00,
2013-12-02 20:24:00,45.1,41.8,29.66,SE,132,0.0,5.0,88,0.00,,CLR,0.00,VWS V14.01,2013-12-03 02:24:00,
2013-12-02 20:25:00,45.1,41.8,29.66,SE,140,2.0,5.0,88,0.00,,CLR,0.00,VWS V14.01,2013-12-03 02:25:00,
2013-12-02 20:27:00,45.1,41.8,29.66,SE,136,3.0,5.0,88,0.00,,CLR,0.00,VWS V14.01,2013-12-03 02:27:00,
2013-12-02 20:28:00,45.1,41.8,29.66,SE,138,3.0,5.0,88,0.00,,CLR,0.00,VWS V14.01,2013-12-03 02:28:00,
2013-12-02 20:29:00,45.3,42.0,29.66,SE,131,2.0,5.0,88,0.00,,CLR,0.00,VWS V14.01,2013-12-03 02:29:00,
2013-12-02 20:30:00,45.3,42.0,29.66,SE,142,0.0,5.0,88,0.00,,CLR,0.00,VWS V14.01,2013-12-03 02:30:00,
2013-12-02 20:31:00,45.3,42.0,29.66,SE,131,5.0,5.0,88,0.00,,CLR,0.00,VWS V14.01,2013-12-03 02:31:00,
2013-12-02 20:33:00,45.4,42.1,29.66,SE,141,0.0,6.0,88,0.00,,CLR,0.00,VWS V14.01,2013-12-03 02:33:00,
2013-12-02 20:34:00,45.4,42.1,29.66,SE,136,3.0,9.0,88,0.00,,CLR,0.00,VWS V14.01,2013-12-03 02:34:00,
2013-12-02 20:36:00,45.4,42.1,29.66,SE,131,6.0,9.0,88,0.00,,CLR,0.00,VWS V14.01,2013-12-03 02:36:00,
2013-12-02 20:38:00,45.6,42.3,29.66,SE,130,1.0,9.0,88,0.00,,CLR,0.00,VWS V14.01,2013-12-03 02:38:00,
2013-12-02 20:39:00,45.6,42.3,29.66,SE,144,0.0,9.0,88,0.00,,CLR,0.00,VWS V14.01,2013-12-03 02:39:00,
2013-12-02 20:41:00,45.4,42.1,29.66,SE,132,0.0,9.0,88,0.00,,CLR,0.00,VWS V14.01,2013-12-03 02:41:00,
2013-12-02 20:43:00,45.4,42.1,29.66,South,169,0.0,9.0,88,0.00,,CLR,0.00,VWS V14.01,2013-12-03 02:43:00,
2013-12-02 20:44:00,45.4,42.1,29.66,ESE,119,3.0,9.0,88,0.00,,CLR,0.00,VWS V14.01,2013-12-03 02:44:00,
2013-12-02 20:46:00,45.4,42.1,29.66,SSE,166,0.0,9.0,88,0.00,,,0.00,VWS V14.01,2013-12-03 02:46:00,
2013-12-02 20:48:00,45.4,42.1,29.66,SSE,157,1.0,9.0,88,0.00,,,0.00,VWS V14.01,2013-12-03 02:48:00,
2013-12-02 20:49:00,45.4,42.1,29.66,SSE,157,0.0,9.0,88,0.00,,,0.00,VWS V14.01,2013-12-03 02:49:00,
2013-12-02 20:51:00,45.3,42.0,29.66,SSE,154,0.0,9.0,88,0.00,,,0.00,VWS V14.01,2013-12-03 02:51:00,
2013-12-02 20:52:00,45.3,42.0,29.66,SSE,154,0.0,9.0,88,0.00,,,0.00,VWS V14.01,2013-12-03 02:52:00,
2013-12-02 20:54:00,45.3,42.0,29.66,SE,133,3.0,9.0,88,0.00,,,0.00,VWS V14.01,2013-12-03 02:54:00,
2013-12-02 20:57:00,45.3,42.0,29.66,SSE,163,0.0,9.0,88,0.00,,,0.00,VWS V14.01,2013-12-03 02:57:00,
2013-12-02 20:59:00,45.3,42.0,29.66,SSE,161,0.0,9.0,88,0.00,,,0.00,VWS V14.01,2013-12-03 02:59:00,
2013-12-02 21:00:00,45.3,42.0,29.66,SE,137,1.0,9.0,88,0.00,,CLR,0.00,VWS V14.01,2013-12-03 03:00:00,
2013-12-02 21:02:00,45.4,42.1,29.66,SE,139,0.0,3.0,88,0.00,,,0.00,VWS V14.01,2013-12-03 03:02:00,
2013-12-02 21:03:00,45.4,42.1,29.66,SE,139,0.0,3.0,88,0.00,,,0.00,VWS V14.01,2013-12-03 03:03:00,
2013-12-02 21:04:00,45.4,42.1,29.66,SE,134,0.0,3.0,88,0.00,,,0.00,VWS V14.01,2013-12-03 03:04:00,
2013-12-02 21:08:00,45.6,42.3,29.66,SSE,158,0.0,4.0,88,0.00,,,0.00,VWS V14.01,2013-12-03 03:08:00,
2013-12-02 21:09:00,45.6,42.3,29.66,South,175,0.0,4.0,88,0.00,,,0.00,VWS V14.01,2013-12-03 03:09:00,
2013-12-02 21:10:00,45.6,42.3,29.66,South,174,0.0,4.0,88,0.00,,,0.00,VWS V14.01,2013-12-03 03:10:00,
2013-12-02 21:13:00,45.4,42.1,29.66,SSE,167,0.0,4.0,88,0.00,,,0.00,VWS V14.01,2013-12-03 03:13:00,
2013-12-02 21:14:00,45.4,42.1,29.65,SSE,159,0.0,4.0,88,0.00,,,0.00,VWS V14.01,2013-12-03 03:14:00,
2013-12-02 21:15:00,45.4,42.1,29.65,SSE,159,0.0,4.0,88,0.00,,,0.00,VWS V14.01,2013-12-03 03:15:00,
2013-12-02 21:18:00,45.4,42.1,29.65,SE,137,0.0,4.0,88,0.00,,,0.00,VWS V14.01,2013-12-03 03:18:00,
2013-12-02 21:19:00,45.4,42.1,29.65,South,173,0.0,4.0,88,0.00,,,0.00,VWS V14.01,2013-12-03 03:19:00,
2013-12-02 21:20:00,45.4,42.1,29.65,South,173,0.0,4.0,88,0.00,,,0.00,VWS V14.01,2013-12-03 03:20:00,
2013-12-02 21:21:00,45.4,42.1,29.65,South,174,0.0,4.0,88,0.00,,,0.00,VWS V14.01,2013-12-03 03:21:00,
2013-12-02 21:23:00,45.6,42.3,29.65,South,171,0.0,4.0,88,0.00,,,0.00,VWS V14.01,2013-12-03 03:23:00,
2013-12-02 21:25:00,45.6,42.3,29.65,South,170,0.0,4.0,88,0.00,,,0.00,VWS V14.01,2013-12-03 03:25:00,
2013-12-02 21:26:00,45.6,42.3,29.65,South,170,0.0,4.0,88,0.00,,,0.00,VWS V14.01,2013-12-03 03:26:00,
2013-12-02 21:28:00,45.4,42.1,29.65,South,171,0.0,4.0,88,0.00,,,0.00,VWS V14.01,2013-12-03 03:28:00,
2013-12-02 21:30:00,45.6,42.3,29.65,South,173,0.0,4.0,88,0.00,,,0.00,VWS V14.01,2013-12-03 03:30:00,
2013-12-02 21:31:00,45.6,42.3,29.65,South,173,2.0,2.0,88,0.00,,,0.00,VWS V14.01,2013-12-03 03:31:00,
2013-12-02 21:33:00,45.6,42.3,29.65,South,171,0.0,3.0,88,0.00,,,0.00,VWS V14.01,2013-12-03 03:33:00,
2013-12-02 21:35:00,45.6,42.3,29.65,South,170,0.0,3.0,88,0.00,,,0.00,VWS V14.01,2013-12-03 03:35:00,
2013-12-02 21:36:00,45.6,42.3,29.65,SE,141,3.0,3.0,88,0.00,,,0.00,VWS V14.01,2013-12-03 03:36:00,
2013-12-02 21:39:00,45.6,42.3,29.65,SSE,149,0.0,5.0,88,0.00,,,0.00,VWS V14.01,2013-12-03 03:39:00,
2013-12-02 21:40:00,45.6,42.3,29.65,SSE,148,0.0,5.0,88,0.00,,,0.00,VWS V14.01,2013-12-03 03:40:00,
2013-12-02 21:41:00,45.6,42.3,29.65,SSE,148,0.0,5.0,88,0.00,,,0.00,VWS V14.01,2013-12-03 03:41:00,
2013-12-02 21:44:00,45.6,42.3,29.65,SSE,148,0.0,5.0,88,0.00,,,0.00,VWS V14.01,2013-12-03 03:44:00,
2013-12-02 21:45:00,45.6,42.3,29.65,SE,143,0.0,5.0,88,0.00,,,0.00,VWS V14.01,2013-12-03 03:45:00,
2013-12-02 21:46:00,45.6,42.3,29.65,SE,143,0.0,5.0,88,0.00,,,0.00,VWS V14.01,2013-12-03 03:46:00,
2013-12-02 21:47:00,45.6,42.3,29.65,SE,143,0.0,5.0,88,0.00,,,0.00,VWS V14.01,2013-12-03 03:47:00,
2013-12-02 21:49:00,45.4,42.1,29.65,SE,143,0.0,5.0,88,0.00,,,0.00,VWS V14.01,2013-12-03 03:49:00,
2013-12-02 21:50:00,45.4,42.1,29.65,SE,144,0.0,5.0,88,0.00,,,0.00,VWS V14.01,2013-12-03 03:50:00,
2013-12-02 21:51:00,45.4,42.1,29.65,SE,146,0.0,5.0,88,0.00,,,0.00,VWS V14.01,2013-12-03 03:51:00,
2013-12-02 21:52:00,45.4,42.1,29.65,SSE,148,0.0,5.0,88,0.00,,,0.00,VWS V14.01,2013-12-03 03:52:00,
2013-12-02 21:54:00,45.4,42.1,29.65,SSE,148,0.0,5.0,88,0.00,,,0.00,VWS V14.01,2013-12-03 03:54:00,
2013-12-02 21:55:00,45.4,42.1,29.65,SSE,148,0.0,5.0,88,0.00,,,0.00,VWS V14.01,2013-12-03 03:55:00,
2013-12-02 21:56:00,45.3,42.0,29.65,SSE,148,0.0,5.0,88,0.00,,,0.00,VWS V14.01,2013-12-03 03:56:00,
2013-12-02 21:57:00,45.3,42.0,29.65,SSE,148,0.0,5.0,88,0.00,,,0.00,VWS V14.01,2013-12-03 03:57:00,
2013-12-02 21:59:00,45.1,41.8,29.65,SE,127,0.0,5.0,88,0.00,,,0.00,VWS V14.01,2013-12-03 03:59:00,
2013-12-02 22:00:00,45.1,41.8,29.65,SE,127,0.0,0.0,88,0.00,,,0.00,VWS V14.01,2013-12-03 04:00:00,
2013-12-02 22:01:00,45.1,41.8,29.65,SE,127,0.0,0.0,88,0.00,,,0.00,VWS V14.01,2013-12-03 04:01:00,
2013-12-02 22:02:00,45.0,41.7,29.65,SE,127,0.0,0.0,88,0.00,,,0.00,VWS V14.01,2013-12-03 04:02:00,
2013-12-02 22:05:00,45.0,42.0,29.65,SE,127,0.0,0.0,89,0.00,,,0.00,VWS V14.01,2013-12-03 04:05:00,
2013-12-02 22:06:00,45.0,42.0,29.65,SE,127,0.0,0.0,89,0.00,,,0.00,VWS V14.01,2013-12-03 04:06:00,
2013-12-02 22:07:00,44.8,41.8,29.65,SE,127,0.0,0.0,89,0.00,,,0.00,VWS V14.01,2013-12-03 04:07:00,
2013-12-02 22:10:00,44.8,41.8,29.65,SE,127,0.0,0.0,89,0.00,,,0.00,VWS V14.01,2013-12-03 04:10:00,
2013-12-02 22:11:00,44.8,41.8,29.65,SE,127,0.0,0.0,89,0.00,,,0.00,VWS V14.01,2013-12-03 04:11:00,
2013-12-02 22:12:00,44.8,41.8,29.65,SE,127,0.0,0.0,89,0.00,,,0.00,VWS V14.01,2013-12-03 04:12:00,
2013-12-02 22:13:00,44.7,41.7,29.65,SE,127,0.0,0.0,89,0.00,,,0.00,VWS V14.01,2013-12-03 04:13:00,
2013-12-02 22:16:00,44.5,41.5,29.65,SE,127,0.0,0.0,89,0.00,,,0.00,VWS V14.01,2013-12-03 04:16:00,
2013-12-02 22:17:00,44.5,41.5,29.65,SE,127,1.0,1.0,89,0.00,,,0.00,VWS V14.01,2013-12-03 04:17:00,
2013-12-02 22:19:00,44.5,41.5,29.65,SE,127,0.0,2.0,89,0.00,,,0.00,VWS V14.01,2013-12-03 04:19:00,
2013-12-02 22:21:00,44.5,41.5,29.65,SE,127,0.0,2.0,89,0.00,,,0.00,VWS V14.01,2013-12-03 04:21:00,
2013-12-02 22:22:00,44.5,41.5,29.65,SE,127,0.0,2.0,89,0.00,,,0.00,VWS V14.01,2013-12-03 04:22:00,
2013-12-02 22:24:00,44.5,41.5,29.65,SE,127,0.0,2.0,89,0.00,,,0.00,VWS V14.01,2013-12-03 04:24:00,
2013-12-02 22:26:00,44.5,41.5,29.65,SE,127,0.0,2.0,89,0.00,,,0.00,VWS V14.01,2013-12-03 04:26:00,
2013-12-02 22:27:00,44.5,41.8,29.65,SE,127,0.0,2.0,90,0.00,,,0.00,VWS V14.01,2013-12-03 04:27:00,
2013-12-02 22:29:00,44.5,41.8,29.65,SE,127,0.0,2.0,90,0.00,,,0.00,VWS V14.01,2013-12-03 04:29:00,
2013-12-02 22:30:00,44.5,41.8,29.65,SE,127,0.0,2.0,90,0.00,,CLR,0.00,VWS V14.01,2013-12-03 04:30:00,
2013-12-02 22:31:00,44.4,41.7,29.65,SE,127,0.0,0.0,90,0.00,,,0.00,VWS V14.01,2013-12-03 04:31:00,
2013-12-02 22:32:00,44.4,41.7,29.65,SE,127,0.0,0.0,90,0.00,,,0.00,VWS V14.01,2013-12-03 04:32:00,
2013-12-02 22:34:00,44.5,41.8,29.65,SE,129,0.0,0.0,90,0.00,,,0.00,VWS V14.01,2013-12-03 04:34:00,
2013-12-02 22:36:00,44.5,41.8,29.65,SE,129,0.0,0.0,90,0.00,,,0.00,VWS V14.01,2013-12-03 04:36:00,
2013-12-02 22:37:00,44.5,41.8,29.65,SE,129,0.0,0.0,90,0.00,,,0.00,VWS V14.01,2013-12-03 04:37:00,
2013-12-02 22:38:00,44.5,41.8,29.65,SE,129,0.0,0.0,90,0.00,,,0.00,VWS V14.01,2013-12-03 04:38:00,
2013-12-02 22:39:00,44.5,41.8,29.65,SSE,166,0.0,1.0,90,0.00,,,0.00,VWS V14.01,2013-12-03 04:39:00,
2013-12-02 22:41:00,44.5,42.0,29.65,SSE,166,0.0,1.0,91,0.00,,,0.00,VWS V14.01,2013-12-03 04:41:00,
2013-12-02 22:42:00,44.5,42.0,29.65,South,175,3.0,3.0,91,0.00,,,0.00,VWS V14.01,2013-12-03 04:42:00,
2013-12-02 22:43:00,44.7,42.0,29.65,South,174,0.0,3.0,90,0.00,,,0.00,VWS V14.01,2013-12-03 04:43:00,
2013-12-02 22:44:00,44.7,42.0,29.64,South,174,0.0,3.0,90,0.00,,,0.00,VWS V14.01,2013-12-03 04:44:00,
2013-12-02 22:46:00,44.5,41.8,29.64,South,174,0.0,3.0,90,0.00,,,0.00,VWS V14.01,2013-12-03 04:46:00,
2013-12-02 22:47:00,44.5,41.8,29.64,South,174,0.0,3.0,90,0.00,,,0.00,VWS V14.01,2013-12-03 04:47:00,
2013-12-02 22:48:00,44.7,42.2,29.64,South,175,0.0,3.0,91,0.00,,,0.00,VWS V14.01,2013-12-03 04:48:00,
2013-12-02 22:49:00,44.7,42.2,29.64,South,175,0.0,3.0,91,0.00,,,0.00,VWS V14.01,2013-12-03 04:49:00,
2013-12-02 22:52:00,44.7,42.2,29.64,South,173,0.0,3.0,91,0.00,,,0.00,VWS V14.01,2013-12-03 04:52:00,
2013-12-02 22:53:00,44.7,42.2,29.64,SSE,150,0.0,3.0,91,0.00,,,0.00,VWS V14.01,2013-12-03 04:53:00,
2013-12-02 22:54:00,44.8,42.3,29.64,SSE,149,0.0,3.0,91,0.00,,,0.00,VWS V14.01,2013-12-03 04:54:00,
2013-12-02 22:57:00,44.8,42.3,29.64,SSE,153,0.0,3.0,91,0.00,,,0.00,VWS V14.01,2013-12-03 04:57:00,
2013-12-02 22:58:00,44.8,42.3,29.64,SSE,153,0.0,3.0,91,0.00,,,0.00,VWS V14.01,2013-12-03 04:58:00,
2013-12-02 23:00:00,44.8,42.3,29.64,SSE,153,0.0,3.0,91,0.00,,,0.00,VWS V14.01,2013-12-03 05:00:00,
2013-12-02 23:01:00,44.8,42.3,29.64,SSE,153,0.0,0.0,91,0.00,,,0.00,VWS V14.01,2013-12-03 05:01:00,
2013-12-02 23:02:00,44.7,42.2,29.64,SSE,153,0.0,0.0,91,0.00,,,0.00,VWS V14.01,2013-12-03 05:02:00,
2013-12-02 23:06:00,44.7,42.2,29.64,SSE,153,0.0,0.0,91,0.00,,,0.00,VWS V14.01,2013-12-03 05:06:00,
2013-12-02 23:07:00,44.7,42.2,29.64,SSE,153,0.0,0.0,91,0.00,,,0.00,VWS V14.01,2013-12-03 05:07:00,
2013-12-02 23:11:00,44.7,42.2,29.64,SSE,153,0.0,0.0,91,0.00,,,0.00,VWS V14.01,2013-12-03 05:11:00,
2013-12-02 23:12:00,44.7,42.2,29.64,SSE,153,0.0,0.0,91,0.00,,,0.00,VWS V14.01,2013-12-03 05:12:00,
2013-12-02 23:16:00,44.5,42.0,29.64,SSE,153,0.0,0.0,91,0.00,,,0.00,VWS V14.01,2013-12-03 05:16:00,
2013-12-02 23:17:00,44.5,42.0,29.64,SSE,153,0.0,0.0,91,0.00,,,0.00,VWS V14.01,2013-12-03 05:17:00,
2013-12-02 23:18:00,44.5,42.0,29.64,SSE,153,0.0,0.0,91,0.00,,,0.00,VWS V14.01,2013-12-03 05:18:00,
2013-12-02 23:21:00,44.7,42.2,29.64,SSE,153,0.0,0.0,91,0.00,,,0.00,VWS V14.01,2013-12-03 05:21:00,
2013-12-02 23:22:00,44.7,42.2,29.64,SSE,153,0.0,0.0,91,0.00,,,0.00,VWS V14.01,2013-12-03 05:22:00,
2013-12-02 23:24:00,44.7,42.5,29.64,SSE,155,0.0,0.0,92,0.00,,,0.00,VWS V14.01,2013-12-03 05:24:00,
2013-12-02 23:26:00,44.7,42.5,29.64,SSE,155,0.0,0.0,92,0.00,,,0.00,VWS V14.01,2013-12-03 05:26:00,
2013-12-02 23:27:00,44.7,42.5,29.64,SSE,155,0.0,0.0,92,0.00,,,0.00,VWS V14.01,2013-12-03 05:27:00,
2013-12-02 23:28:00,44.7,42.5,29.64,SSE,155,0.0,0.0,92,0.00,,,0.00,VWS V14.01,2013-12-03 05:28:00,
2013-12-02 23:29:00,44.7,42.5,29.64,SSE,155,0.0,0.0,92,0.00,,,0.00,VWS V14.01,2013-12-03 05:29:00,
2013-12-02 23:30:00,44.7,42.5,29.64,SSE,155,0.0,0.0,92,0.00,,CLR,0.00,VWS V14.01,2013-12-03 05:30:00,
2013-12-02 23:31:00,44.7,42.5,29.64,SSE,155,0.0,0.0,92,0.00,,,0.00,VWS V14.01,2013-12-03 05:31:00,
2013-12-02 23:32:00,44.7,42.5,29.64,SSE,155,0.0,0.0,92,0.00,,,0.00,VWS V14.01,2013-12-03 05:32:00,
2013-12-02 23:33:00,44.7,42.5,29.64,SSE,168,2.0,2.0,92,0.00,,,0.00,VWS V14.01,2013-12-03 05:33:00,
2013-12-02 23:34:00,44.7,42.5,29.64,South,169,0.0,2.0,92,0.00,,,0.00,VWS V14.01,2013-12-03 05:34:00,
2013-12-02 23:36:00,44.7,42.5,29.64,South,171,0.0,4.0,92,0.00,,,0.00,VWS V14.01,2013-12-03 05:36:00,
2013-12-02 23:38:00,44.7,42.5,29.64,South,171,0.0,4.0,92,0.00,,,0.00,VWS V14.01,2013-12-03 05:38:00,
2013-12-02 23:39:00,44.7,42.5,29.64,SSE,163,0.0,4.0,92,0.00,,,0.00,VWS V14.01,2013-12-03 05:39:00,
2013-12-02 23:41:00,44.7,42.5,29.64,SSE,163,2.0,4.0,92,0.00,,,0.00,VWS V14.01,2013-12-03 05:41:00,
2013-12-02 23:42:00,44.7,42.5,29.64,SSE,163,0.0,4.0,92,0.00,,,0.00,VWS V14.01,2013-12-03 05:42:00,
2013-12-02 23:43:00,44.7,42.5,29.64,SSE,163,1.0,4.0,92,0.00,,,0.00,VWS V14.01,2013-12-03 05:43:00,
2013-12-02 23:45:00,44.7,42.5,29.64,SSE,163,0.0,4.0,92,0.00,,,0.00,VWS V14.01,2013-12-03 05:45:00,
2013-12-02 23:46:00,44.7,42.5,29.64,SSE,163,0.0,4.0,92,0.00,,,0.00,VWS V14.01,2013-12-03 05:46:00,
2013-12-02 23:47:00,44.7,42.5,29.64,SSE,164,3.0,4.0,92,0.00,,,0.00,VWS V14.01,2013-12-03 05:47:00,
2013-12-02 23:48:00,44.7,42.5,29.64,SSE,164,0.0,4.0,92,0.00,,,0.00,VWS V14.01,2013-12-03 05:48:00,
2013-12-02 23:51:00,44.7,42.5,29.64,SSE,164,0.0,4.0,92,0.00,,,0.00,VWS V14.01,2013-12-03 05:51:00,
2013-12-02 23:52:00,44.7,42.5,29.64,South,171,2.0,4.0,92,0.00,,,0.00,VWS V14.01,2013-12-03 05:52:00,
2013-12-02 23:53:00,44.7,42.5,29.64,South,171,0.0,4.0,92,0.00,,,0.00,VWS V14.01,2013-12-03 05:53:00,
2013-12-02 23:56:00,44.7,42.5,29.64,South,180,2.0,5.0,92,0.00,,,0.00,VWS V14.01,2013-12-03 05:56:00,
2013-12-02 23:57:00,44.7,42.5,29.64,South,180,0.0,5.0,92,0.00,,,0.00,VWS V14.01,2013-12-03 05:57:00,
2013-12-02 23:58:00,44.8,42.6,29.64,South,180,0.0,5.0,92,0.00,,,0.00,VWS V14.01,2013-12-03 05:58:00,
2013-12-02 23:59:00,44.8,42.6,29.64,South,180,0.0,5.0,92,0.00,,,0.00,VWS V14.01,2013-12-03 05:59:00,